FW4143 Weather Reports


Display with metric or nautical units.
time (UTC)temp
F
wind
direction
speed
MPH
gust
MPH
rain 1hr
in
rain 24hr
in
rain mn
in
humidity
%
barometer
mb
20220706154904 87 49 6.0 13.0 0.00 0.00 0.00 66 1016.1
20220706154804 87 47 6.0 13.0 0.00 0.00 0.00 66 1016.1
20220706154704 87 44 6.0 13.0 0.00 0.00 0.00 66 1016.1
20220706154604 87 42 6.0 13.0 0.00 0.00 0.00 65 1016.1
20220706154504 87 42 5.0 13.0 0.00 0.00 0.00 66 1016.1
20220706154406 87 40 5.0 13.0 0.00 0.00 0.00 65 1016.1
20220706154304 87 36 5.0 11.0 0.00 0.00 0.00 66 1016.1
20220706154204 87 39 5.0 12.0 0.00 0.00 0.00 66 1016.1
20220706154104 87 42 5.0 12.0 0.00 0.00 0.00 66 1016.1
20220706154004 87 45 5.0 12.0 0.00 0.00 0.00 67 1016.1
20220706153904 86 47 5.0 12.0 0.00 0.00 0.00 68 1016.2
20220706153805 86 46 5.0 12.0 0.00 0.00 0.00 68 1016.2
20220706153704 86 48 5.0 12.0 0.00 0.00 0.00 66 1016.2
20220706153606 86 48 5.0 12.0 0.00 0.00 0.00 67 1016.2
20220706153504 86 48 6.0 12.0 0.00 0.00 0.00 67 1016.2
20220706153404 86 49 6.0 12.0 0.00 0.00 0.00 66 1016.1
20220706153304 86 50 6.0 12.0 0.00 0.00 0.00 67 1016.1
20220706153204 86 50 6.0 13.0 0.00 0.00 0.00 66 1016.1
20220706153104 86 50 6.0 14.0 0.00 0.00 0.00 67 1016.1
20220706153004 86 48 6.0 14.0 0.00 0.00 0.00 67 1016.1
20220706152904 86 46 7.0 14.0 0.00 0.00 0.00 67 1016.1
20220706152805 86 48 8.0 15.0 0.00 0.00 0.00 67 1016.1
20220706152704 86 49 8.0 15.0 0.00 0.00 0.00 68 1016.1
20220706152604 86 50 8.0 15.0 0.00 0.00 0.00 68 1016.1
20220706152504 86 50 8.0 15.0 0.00 0.00 0.00 68 1016.1
20220706152404 86 50 8.0 15.0 0.00 0.00 0.00 68 1016.1
20220706152304 85 51 8.0 15.0 0.00 0.00 0.00 68 1016.1
20220706152204 85 50 7.0 15.0 0.00 0.00 0.00 67 1016.1
20220706152104 85 49 7.0 15.0 0.00 0.00 0.00 68 1016.1
20220706152004 85 50 7.0 15.0 0.00 0.00 0.00 68 1016.1
20220706151904 85 49 7.0 15.0 0.00 0.00 0.00 67 1016.2
20220706151804 85 48 7.0 14.0 0.00 0.00 0.00 69 1016.2
20220706151703 85 48 7.0 14.0 0.00 0.00 0.00 69 1016.2
20220706151604 85 46 7.0 14.0 0.00 0.00 0.00 68 1016.1
20220706151504 85 47 7.0 14.0 0.00 0.00 0.00 70 1016.2
20220706151405 85 46 7.0 14.0 0.00 0.00 0.00 70 1016.2
20220706151304 85 47 7.0 14.0 0.00 0.00 0.00 70 1016.2
20220706151205 85 48 8.0 14.0 0.00 0.00 0.00 70 1016.2
20220706151104 85 47 8.0 15.0 0.00 0.00 0.00 70 1016.2
20220706151004 85 46 8.0 15.0 0.00 0.00 0.00 70 1016.2
20220706150904 85 47 9.0 15.0 0.00 0.00 0.00 70 1016.2
20220706150804 85 49 8.0 15.0 0.00 0.00 0.00 69 1016.2
20220706150704 84 48 8.0 15.0 0.00 0.00 0.00 70 1016.2
20220706150604 84 49 9.0 15.0 0.00 0.00 0.00 70 1016.2
20220706150504 84 51 9.0 15.0 0.00 0.00 0.00 69 1016.2
20220706150404 84 50 9.0 15.0 0.00 0.00 0.00 71 1016.2
20220706150304 84 49 8.0 15.0 0.00 0.00 0.00 70 1016.3
20220706150204 85 50 8.0 15.0 0.00 0.00 0.00 69 1016.2
20220706150104 85 51 8.0 15.0 0.00 0.00 0.00 69 1016.3
20220706150005 85 51 8.0 15.0 0.00 0.00 0.00 69 1016.3
20220706145904 85 52 8.0 15.0 0.00 0.00 0.00 69 1016.3
20220706145806 85 52 8.0 15.0 0.00 0.00 0.00 69 1016.3
20220706145704 85 52 8.0 15.0 0.00 0.00 0.00 69 1016.3
20220706145604 84 51 8.0 14.0 0.00 0.00 0.00 70 1016.3
20220706145504 84 49 8.0 13.0 0.00 0.00 0.00 73 1016.3
20220706145405 84 50 7.0 13.0 0.00 0.00 0.00 72 1016.3
20220706145303 84 50 8.0 13.0 0.00 0.00 0.00 72 1016.2
20220706145203 84 48 8.0 13.0 0.00 0.00 0.00 71 1016.3
20220706145104 84 47 7.0 13.0 0.00 0.00 0.00 70 1016.2
20220706145004 84 49 7.0 13.0 0.00 0.00 0.00 71 1016.3
20220706144904 84 49 7.0 13.0 0.00 0.00 0.00 73 1016.3
20220706144805 84 47 7.0 13.0 0.00 0.00 0.00 73 1016.3
20220706144704 84 49 7.0 13.0 0.00 0.00 0.00 73 1016.3
20220706144604 84 52 7.0 13.0 0.00 0.00 0.00 74 1016.3
20220706144504 84 50 7.0 13.0 0.00 0.00 0.00 73 1016.3
20220706144404 84 51 7.0 14.0 0.00 0.00 0.00 73 1016.3
20220706144304 84 51 7.0 14.0 0.00 0.00 0.00 72 1016.3
20220706144205 84 50 7.0 14.0 0.00 0.00 0.00 75 1016.3
20220706144104 84 50 8.0 14.0 0.00 0.00 0.00 74 1016.3
20220706144004 84 49 8.0 15.0 0.00 0.00 0.00 74 1016.3
20220706143904 84 50 8.0 15.0 0.00 0.00 0.00 74 1016.2
20220706143804 84 53 8.0 15.0 0.00 0.00 0.00 74 1016.3
20220706143704 84 54 8.0 15.0 0.00 0.00 0.00 74 1016.3
20220706143604 84 51 8.0 15.0 0.00 0.00 0.00 74 1016.3
20220706143504 84 52 8.0 15.0 0.00 0.00 0.00 74 1016.3
20220706143404 84 52 7.0 15.0 0.00 0.00 0.00 75 1016.3
20220706143304 84 53 8.0 15.0 0.00 0.00 0.00 75 1016.2
20220706143204 84 53 8.0 15.0 0.00 0.00 0.00 74 1016.2
20220706143103 84 51 7.0 15.0 0.00 0.00 0.00 75 1016.3
20220706143005 83 52 7.0 13.0 0.00 0.00 0.00 75 1016.3
20220706142904 83 49 7.0 13.0 0.00 0.00 0.00 76 1016.3
20220706142804 83 49 7.0 13.0 0.00 0.00 0.00 75 1016.3
20220706142704 83 47 7.0 13.0 0.00 0.00 0.00 75 1016.3
20220706142604 83 48 7.0 12.0 0.00 0.00 0.00 76 1016.3
20220706142504 83 47 7.0 12.0 0.00 0.00 0.00 76 1016.3
20220706142404 83 47 7.0 13.0 0.00 0.00 0.00 76 1016.2
20220706142303 83 45 7.0 13.0 0.00 0.00 0.00 76 1016.3
20220706142204 83 47 7.0 13.0 0.00 0.00 0.00 77 1016.3
20220706142104 83 48 7.0 13.0 0.00 0.00 0.00 77 1016.2
20220706142006 83 47 7.0 13.0 0.00 0.00 0.00 78 1016.2
20220706141903 82 46 7.0 13.0 0.00 0.00 0.00 78 1016.2
20220706141804 82 47 7.0 13.0 0.00 0.00 0.00 79 1016.2
20220706141704 82 48 8.0 13.0 0.00 0.00 0.00 79 1016.1
20220706141604 82 47 8.0 17.0 0.00 0.00 0.00 79 1016.2
20220706141504 82 46 8.0 17.0 0.00 0.00 0.00 78 1016.2
20220706141404 82 46 8.0 17.0 0.00 0.00 0.00 79 1016.2
20220706141304 82 46 7.0 17.0 0.00 0.00 0.00 79 1016.1
20220706141204 82 44 8.0 17.0 0.00 0.00 0.00 79 1016.1
20220706141103 82 42 7.0 17.0 0.00 0.00 0.00 78 1016.2
20220706141004 82 42 7.0 17.0 0.00 0.00 0.00 78 1016.1
20220706140904 82 45 7.0 17.0 0.00 0.00 0.00 78 1016.1
20220706140805 82 44 7.0 17.0 0.00 0.00 0.00 78 1016.1
20220706140704 82 42 7.0 17.0 0.00 0.00 0.00 79 1016.1
20220706140604 82 43 7.0 13.0 0.00 0.00 0.00 81 1016.2
20220706140504 82 42 7.0 13.0 0.00 0.00 0.00 81 1016.1
20220706140405 81 42 7.0 13.0 0.00 0.00 0.00 81 1016.2
20220706140304 81 41 7.0 13.0 0.00 0.00 0.00 81 1016.1
20220706140204 81 41 8.0 15.0 0.00 0.00 0.00 81 1016.1
20220706140104 81 42 8.0 15.0 0.00 0.00 0.00 81 1016.1
20220706140004 81 43 8.0 15.0 0.00 0.00 0.00 81 1016.1
20220706135904 81 42 8.0 15.0 0.00 0.00 0.00 82 1016.1
20220706135804 81 41 9.0 16.0 0.00 0.00 0.00 83 1016.1
20220706135704 81 41 9.0 16.0 0.00 0.00 0.00 83 1016.0
20220706135604 81 40 9.0 16.0 0.00 0.00 0.00 83 1016.0
20220706135504 80 41 9.0 16.0 0.00 0.00 0.00 83 1015.9
20220706135405 80 41 9.0 16.0 0.00 0.00 0.00 83 1015.9
20220706135304 80 43 9.0 16.0 0.00 0.00 0.00 83 1015.9
20220706135204 80 44 10.0 18.0 0.00 0.00 0.00 83 1016.0
20220706135104 80 46 10.0 18.0 0.00 0.00 0.00 83 1015.9
20220706135004 80 47 10.0 18.0 0.00 0.00 0.00 83 1016.0
20220706134904 80 49 10.0 18.0 0.00 0.00 0.00 83 1016.0
20220706134805 80 49 10.0 18.0 0.00 0.00 0.00 83 1016.0
20220706134704 80 50 10.0 18.0 0.00 0.00 0.00 83 1016.0
20220706134604 80 53 10.0 18.0 0.00 0.00 0.00 83 1016.0
20220706134504 80 53 10.0 18.0 0.00 0.00 0.00 83 1016.0
20220706134405 80 55 10.0 18.0 0.00 0.00 0.00 83 1015.9
20220706134304 80 56 10.0 18.0 0.00 0.00 0.00 82 1016.0
20220706134204 80 57 9.0 18.0 0.00 0.00 0.00 82 1016.0
20220706134104 80 56 9.0 18.0 0.00 0.00 0.00 82 1015.8
20220706134004 81 54 9.0 18.0 0.00 0.00 0.00 82 1015.9
20220706133904 81 54 9.0 18.0 0.00 0.00 0.00 82 1015.8
20220706133804 81 54 9.0 16.0 0.00 0.00 0.00 83 1015.8
20220706133704 81 54 9.0 16.0 0.00 0.00 0.00 83 1015.8
20220706133605 81 53 9.0 16.0 0.00 0.00 0.00 83 1015.8
20220706133504 81 54 9.0 16.0 0.00 0.00 0.00 83 1015.8
20220706133404 81 54 8.0 16.0 0.00 0.00 0.00 84 1015.7
20220706133304 81 52 8.0 16.0 0.00 0.00 0.00 84 1015.7
20220706133203 81 52 9.0 16.0 0.00 0.00 0.00 84 1015.7
20220706133103 80 53 9.0 16.0 0.00 0.00 0.00 84 1015.7
20220706133004 80 53 9.0 16.0 0.00 0.00 0.00 84 1015.7
20220706132904 80 53 9.0 16.0 0.00 0.00 0.00 84 1015.7
20220706132804 80 54 8.0 16.0 0.00 0.00 0.00 84 1015.7
20220706132704 80 53 8.0 15.0 0.00 0.00 0.00 84 1015.7
20220706132605 80 50 8.0 15.0 0.00 0.00 0.00 84 1015.7
20220706132504 81 49 7.0 15.0 0.00 0.00 0.00 84 1015.6
20220706132404 81 46 7.0 15.0 0.00 0.00 0.00 85 1015.6
20220706132304 81 45 6.0 15.0 0.00 0.00 0.00 85 1015.6
20220706132204 81 45 6.0 15.0 0.00 0.00 0.00 85 1015.6
20220706132104 81 41 6.0 15.0 0.00 0.00 0.00 85 1015.5
20220706132004 81 42 6.0 15.0 0.00 0.00 0.00 85 1015.5
20220706131904 81 39 6.0 15.0 0.00 0.00 0.00 86 1015.5
20220706131805 81 38 5.0 12.0 0.00 0.00 0.00 86 1015.5
20220706131704 81 36 5.0 13.0 0.00 0.00 0.00 86 1015.4
20220706131605 80 39 5.0 13.0 0.00 0.00 0.00 86 1015.5
20220706131504 80 39 6.0 13.0 0.00 0.00 0.00 87 1015.4
20220706131404 80 40 6.0 13.0 0.00 0.00 0.00 87 1015.5
20220706131303 80 39 6.0 13.0 0.00 0.00 0.00 87 1015.4
20220706131203 80 37 6.0 13.0 0.00 0.00 0.00 87 1015.5
20220706131104 80 38 6.0 13.0 0.00 0.00 0.00 87 1015.5
20220706131004 80 37 5.0 13.0 0.00 0.00 0.00 87 1015.4
20220706130904 80 38 5.0 13.0 0.00 0.00 0.00 87 1015.4
20220706130804 80 38 5.0 13.0 0.00 0.00 0.00 87 1015.5
20220706130704 80 39 5.0 11.0 0.00 0.00 0.00 87 1015.4
20220706130605 80 37 5.0 11.0 0.00 0.00 0.00 87 1015.4
20220706130504 80 38 5.0 11.0 0.00 0.00 0.00 87 1015.4
20220706130404 80 38 5.0 11.0 0.00 0.00 0.00 87 1015.3
20220706130304 80 39 5.0 11.0 0.00 0.00 0.00 87 1015.4
20220706130205 80 41 5.0 11.0 0.00 0.00 0.00 88 1015.3
20220706130104 80 42 6.0 11.0 0.00 0.00 0.00 88 1015.4
20220706130004 80 43 6.0 11.0 0.00 0.00 0.00 88 1015.4
20220706125904 80 43 6.0 11.0 0.00 0.00 0.00 88 1015.3
20220706125804 80 42 6.0 11.0 0.00 0.00 0.00 88 1015.3
20220706125704 79 43 6.0 12.0 0.00 0.00 0.00 88 1015.3
20220706125604 79 44 6.0 12.0 0.00 0.00 0.00 88 1015.3
20220706125504 79 44 6.0 12.0 0.00 0.00 0.00 88 1015.3
20220706125405 79 42 6.0 12.0 0.00 0.00 0.00 88 1015.2
20220706125304 79 43 6.0 12.0 0.00 0.00 0.00 88 1015.2
20220706125204 79 41 6.0 12.0 0.00 0.00 0.00 88 1015.2
20220706125104 79 42 6.0 12.0 0.00 0.00 0.00 88 1015.2
20220706125004 79 40 6.0 12.0 0.00 0.00 0.00 88 1015.2
20220706124904 79 40 5.0 12.0 0.00 0.00 0.00 88 1015.2
20220706124806 79 41 6.0 12.0 0.00 0.00 0.00 89 1015.2
20220706124704 79 40 5.0 12.0 0.00 0.00 0.00 89 1015.2
20220706124604 79 41 5.0 12.0 0.00 0.00 0.00 89 1015.2
20220706124504 79 41 5.0 12.0 0.00 0.00 0.00 89 1015.2
20220706124404 79 42 5.0 12.0 0.00 0.00 0.00 89 1015.2
20220706124303 79 42 5.0 12.0 0.00 0.00 0.00 89 1015.2
20220706124203 79 44 5.0 12.0 0.00 0.00 0.00 89 1015.2
20220706124104 79 44 6.0 12.0 0.00 0.00 0.00 89 1015.2
20220706124004 79 45 6.0 12.0 0.00 0.00 0.00 89 1015.1
20220706123904 79 44 6.0 12.0 0.00 0.00 0.00 89 1015.1
20220706123805 79 44 5.0 11.0 0.00 0.00 0.00 89 1015.1
20220706123704 79 44 6.0 11.0 0.00 0.00 0.00 89 1015.1
20220706123604 78 44 6.0 11.0 0.00 0.00 0.00 89 1015.1
20220706123504 78 44 6.0 11.0 0.00 0.00 0.00 89 1015.2
20220706123405 78 44 6.0 13.0 0.00 0.00 0.00 89 1015.2
20220706123303 78 43 6.0 13.0 0.00 0.00 0.00 89 1015.2
20220706123203 78 43 6.0 13.0 0.00 0.00 0.00 89 1015.2
20220706123103 78 42 6.0 13.0 0.00 0.00 0.00 89 1015.2
20220706123005 79 42 6.0 13.0 0.00 0.00 0.00 89 1015.2
20220706122904 79 43 6.0 13.0 0.00 0.00 0.00 89 1015.2
20220706122804 79 44 6.0 13.0 0.00 0.00 0.00 89 1015.2
20220706122703 79 43 6.0 13.0 0.00 0.00 0.00 89 1015.2
20220706122605 79 41 6.0 13.0 0.00 0.00 0.00 89 1015.2
20220706122504 78 41 6.0 13.0 0.00 0.00 0.00 89 1015.2
20220706122404 78 43 5.0 13.0 0.00 0.00 0.00 89 1015.2
20220706122304 78 44 5.0 11.0 0.00 0.00 0.00 89 1015.2
20220706122204 78 42 6.0 11.0 0.00 0.00 0.00 89 1015.2
20220706122104 78 42 6.0 11.0 0.00 0.00 0.00 89 1015.2
20220706122004 78 39 5.0 11.0 0.00 0.00 0.00 89 1015.2
20220706121904 78 37 6.0 11.0 0.00 0.00 0.00 89 1015.2
20220706121804 78 37 5.0 11.0 0.00 0.00 0.00 89 1015.2
20220706121704 78 37 5.0 11.0 0.00 0.00 0.00 89 1015.1
20220706121605 78 38 5.0 11.0 0.00 0.00 0.00 89 1015.1
20220706121504 78 38 5.0 11.0 0.00 0.00 0.00 89 1015.1
20220706121405 78 36 5.0 11.0 0.00 0.00 0.00 89 1015.1
20220706121303 78 35 5.0 11.0 0.00 0.00 0.00 89 1015.2
20220706121203 78 37 5.0 11.0 0.00 0.00 0.00 89 1015.2
20220706121103 78 37 5.0 10.0 0.00 0.00 0.00 89 1015.2
20220706121004 78 40 5.0 10.0 0.00 0.00 0.00 89 1015.2
20220706120904 78 41 5.0 10.0 0.00 0.00 0.00 89 1015.2
20220706120804 78 41 5.0 10.0 0.00 0.00 0.00 89 1015.2
20220706120704 78 41 5.0 10.0 0.00 0.00 0.00 89 1015.2
20220706120604 78 40 5.0 10.0 0.00 0.00 0.00 89 1015.3
20220706120504 78 39 5.0 10.0 0.00 0.00 0.00 89 1015.2
20220706120404 78 39 4.0 10.0 0.00 0.00 0.00 89 1015.2
20220706120304 78 39 4.0 10.0 0.00 0.00 0.00 89 1015.2
20220706120205 78 38 4.0 10.0 0.00 0.00 0.00 89 1015.2
20220706120103 78 40 4.0 9.0 0.00 0.00 0.00 89 1015.2
20220706120004 78 39 4.0 10.0 0.00 0.00 0.00 89 1015.2
20220706115904 78 40 4.0 10.0 0.00 0.00 0.00 89 1015.2
20220706115804 78 40 4.0 10.0 0.00 0.00 0.00 89 1015.2
20220706115704 78 41 4.0 10.0 0.00 0.00 0.00 89 1015.2
20220706115604 78 41 4.0 10.0 0.00 0.00 0.00 89 1015.2
20220706115504 78 43 5.0 11.0 0.00 0.00 0.00 90 1015.2
20220706115404 78 43 5.0 11.0 0.00 0.00 0.00 90 1015.2
20220706115304 78 44 5.0 11.0 0.00 0.00 0.00 90 1015.2
20220706115204 78 44 5.0 11.0 0.00 0.00 0.00 90 1015.2
20220706115104 78 43 5.0 11.0 0.00 0.00 0.00 90 1015.2
20220706115004 78 44 4.0 11.0 0.00 0.00 0.00 90 1015.2
20220706114904 78 43 4.0 11.0 0.00 0.00 0.00 90 1015.2
20220706114805 78 44 5.0 11.0 0.00 0.00 0.00 90 1015.2
20220706114704 78 44 5.0 11.0 0.00 0.00 0.00 90 1015.3
20220706114604 78 44 5.0 11.0 0.00 0.00 0.00 90 1015.2
20220706114504 78 44 5.0 8.0 0.00 0.00 0.00 90 1015.3
20220706114404 78 46 5.0 8.0 0.00 0.00 0.00 90 1015.3
20220706114304 78 45 5.0 8.0 0.00 0.00 0.00 90 1015.2
20220706114204 78 45 5.0 8.0 0.00 0.00 0.00 90 1015.2
20220706114104 78 45 4.0 8.0 0.00 0.00 0.00 90 1015.3
20220706114004 78 44 5.0 8.0 0.00 0.00 0.00 90 1015.3
20220706113904 78 46 5.0 8.0 0.00 0.00 0.00 90 1015.3
20220706113805 77 46 4.0 8.0 0.00 0.00 0.00 90 1015.3
20220706113704 77 46 4.0 7.0 0.00 0.00 0.00 90 1015.3
20220706113604 77 47 4.0 7.0 0.00 0.00 0.00 90 1015.3
20220706113504 77 45 4.0 7.0 0.00 0.00 0.00 90 1015.3
20220706113404 77 45 4.0 7.0 0.00 0.00 0.00 90 1015.3
20220706113304 77 44 4.0 7.0 0.00 0.00 0.00 90 1015.3
20220706113204 77 45 3.0 7.0 0.00 0.00 0.00 90 1015.3
20220706113104 77 46 3.0 7.0 0.00 0.00 0.00 90 1015.3
20220706113004 77 47 3.0 8.0 0.00 0.00 0.00 90 1015.3
20220706112904 77 47 3.0 8.0 0.00 0.00 0.00 90 1015.3
20220706112806 77 45 3.0 8.0 0.00 0.00 0.00 90 1015.3
20220706112704 77 45 3.0 8.0 0.00 0.00 0.00 90 1015.3
20220706112604 77 44 3.0 8.0 0.00 0.00 0.00 90 1015.3
20220706112503 77 44 3.0 8.0 0.00 0.00 0.00 90 1015.3
20220706112403 77 42 3.0 8.0 0.00 0.00 0.00 90 1015.3
20220706112304 77 41 3.0 8.0 0.00 0.00 0.00 90 1015.3
20220706112204 77 39 3.0 8.0 0.00 0.00 0.00 90 1015.2
20220706112103 77 37 3.0 8.0 0.00 0.00 0.00 90 1015.2
20220706112005 77 35 2.0 6.0 0.00 0.00 0.00 90 1015.2
20220706111904 77 33 2.0 5.0 0.00 0.00 0.00 90 1015.2
20220706111805 77 32 2.0 5.0 0.00 0.00 0.00 90 1015.1
20220706111704 77 28 2.0 5.0 0.00 0.00 0.00 90 1015.2
20220706111604 77 28 3.0 5.0 0.00 0.00 0.00 90 1015.1
20220706111504 77 25 3.0 5.0 0.00 0.00 0.00 90 1015.1
20220706111404 77 24 2.0 7.0 0.00 0.00 0.00 90 1015.1
20220706111304 77 23 2.0 7.0 0.00 0.00 0.00 90 1015.1
20220706111204 77 20 3.0 7.0 0.00 0.00 0.00 90 1015.1
20220706111104 77 21 2.0 7.0 0.00 0.00 0.00 90 1015.1
20220706111004 77 20 2.0 7.0 0.00 0.00 0.00 90 1015.1
20220706110904 77 19 2.0 7.0 0.00 0.00 0.00 90 1015.1
20220706110804 77 21 2.0 7.0 0.00 0.00 0.00 90 1015.1
20220706110703 77 25 2.0 7.0 0.00 0.00 0.00 90 1015.1
20220706110605 77 25 2.0 7.0 0.00 0.00 0.00 90 1015.1
20220706110504 77 28 2.0 7.0 0.00 0.00 0.00 90 1015.1
20220706110405 77 31 2.0 7.0 0.00 0.00 0.00 90 1015.1
20220706110304 77 31 3.0 7.0 0.00 0.00 0.00 90 1015.1
20220706110203 77 35 2.0 7.0 0.00 0.00 0.00 90 1015.0
20220706110103 77 34 2.0 7.0 0.00 0.00 0.00 90 1015.0
20220706110004 77 34 2.0 7.0 0.00 0.00 0.00 90 1014.9
20220706105904 77 34 2.0 7.0 0.00 0.00 0.00 90 1014.9
20220706105804 77 35 2.0 7.0 0.00 0.00 0.00 90 1014.9
20220706105704 77 36 2.0 7.0 0.00 0.00 0.00 90 1014.8
20220706105604 77 36 3.0 7.0 0.00 0.00 0.00 90 1014.8
20220706105504 77 35 3.0 7.0 0.00 0.00 0.00 90 1014.8
20220706105405 77 33 2.0 6.0 0.00 0.00 0.00 90 1014.8
20220706105303 77 32 2.0 6.0 0.00 0.00 0.00 90 1014.8
20220706105204 77 32 3.0 9.0 0.00 0.00 0.00 90 1014.8
20220706105104 77 32 3.0 9.0 0.00 0.00 0.00 90 1014.8
20220706105005 77 33 3.0 9.0 0.00 0.00 0.00 90 1014.9
20220706104904 77 34 3.0 9.0 0.00 0.00 0.00 90 1014.9
20220706104803 77 35 3.0 9.0 0.00 0.00 0.00 90 1014.9
20220706104703 77 35 3.0 9.0 0.00 0.00 0.00 90 1014.9
20220706104605 77 37 3.0 9.0 0.00 0.00 0.00 90 1014.9
20220706104504 77 38 3.0 9.0 0.00 0.00 0.00 90 1014.9
20220706104404 77 40 4.0 9.0 0.00 0.00 0.00 90 1014.9
20220706104304 77 41 4.0 9.0 0.00 0.00 0.00 90 1014.9
20220706104204 77 42 4.0 7.0 0.00 0.00 0.00 90 1014.9
20220706104104 77 42 4.0 7.0 0.00 0.00 0.00 90 1014.9
20220706104005 77 43 4.0 7.0 0.00 0.00 0.00 90 1014.8
20220706103904 77 43 4.0 8.0 0.00 0.00 0.00 90 1014.8
20220706103805 77 42 5.0 8.0 0.00 0.00 0.00 90 1014.8
20220706103704 77 41 5.0 9.0 0.00 0.00 0.00 89 1014.8
20220706103604 77 42 5.0 9.0 0.00 0.00 0.00 89 1014.8
20220706103504 77 43 5.0 9.0 0.00 0.00 0.00 89 1014.8
20220706103405 78 44 5.0 9.0 0.00 0.00 0.00 89 1014.8
20220706103303 78 45 5.0 9.0 0.00 0.00 0.00 89 1014.8
20220706103205 78 46 5.0 9.0 0.00 0.00 0.00 89 1014.9
20220706103104 78 47 5.0 9.0 0.00 0.00 0.00 89 1014.9
20220706103004 78 47 6.0 9.0 0.00 0.00 0.00 89 1014.9
20220706102904 78 46 6.0 9.0 0.00 0.00 0.00 89 1014.9
20220706102804 78 46 6.0 11.0 0.00 0.00 0.00 89 1014.8
20220706102704 78 48 5.0 11.0 0.00 0.00 0.00 89 1014.9
20220706102604 78 48 5.0 11.0 0.00 0.00 0.00 89 1014.9
20220706102504 78 46 5.0 11.0 0.00 0.00 0.00 89 1014.9
20220706102404 78 45 5.0 11.0 0.00 0.00 0.00 89 1014.9
20220706102304 78 45 5.0 11.0 0.00 0.00 0.00 89 1014.9
20220706102204 78 44 5.0 11.0 0.00 0.00 0.00 89 1014.9
20220706102104 78 43 5.0 11.0 0.00 0.00 0.00 89 1014.8
20220706102004 78 42 5.0 11.0 0.00 0.00 0.00 89 1014.8
20220706101904 78 44 5.0 11.0 0.00 0.00 0.00 89 1014.8
20220706101804 78 45 5.0 10.0 0.00 0.00 0.00 89 1014.8
20220706101704 78 45 5.0 10.0 0.00 0.00 0.00 89 1014.8
20220706101605 78 46 5.0 10.0 0.00 0.00 0.00 89 1014.8
20220706101504 78 47 6.0 10.0 0.00 0.00 0.00 89 1014.9
20220706101404 78 48 5.0 10.0 0.00 0.00 0.00 89 1014.8
20220706101304 78 49 6.0 10.0 0.00 0.00 0.00 89 1014.9
20220706101205 78 49 5.0 10.0 0.00 0.00 0.00 89 1014.9
20220706101104 78 50 5.0 10.0 0.00 0.00 0.00 89 1014.9
20220706101004 78 52 5.0 10.0 0.00 0.00 0.00 89 1014.9
20220706100904 78 51 5.0 11.0 0.00 0.00 0.00 89 1014.8
20220706100804 78 52 5.0 11.0 0.00 0.00 0.00 89 1014.8
20220706100704 78 51 6.0 11.0 0.00 0.00 0.00 89 1014.8
20220706100604 78 51 6.0 11.0 0.00 0.00 0.00 89 1014.8
20220706100504 78 50 6.0 12.0 0.00 0.00 0.00 89 1014.8
20220706100404 78 50 6.0 12.0 0.00 0.00 0.00 89 1014.7
20220706100303 78 50 6.0 12.0 0.00 0.00 0.00 89 1014.7
20220706100203 78 51 6.0 12.0 0.00 0.00 0.00 88 1014.7
20220706100104 78 49 7.0 15.0 0.00 0.00 0.00 88 1014.6
20220706100006 78 49 7.0 15.0 0.00 0.00 0.00 88 1014.7
20220706095904 78 50 7.0 15.0 0.00 0.00 0.00 88 1014.6
20220706095804 78 49 7.0 15.0 0.00 0.00 0.00 88 1014.6
20220706095703 78 50 7.0 15.0 0.00 0.00 0.00 88 1014.6
20220706095603 78 50 7.0 15.0 0.00 0.00 0.00 88 1014.6
20220706095503 78 50 7.0 15.0 0.00 0.00 0.00 88 1014.6
20220706095405 78 48 7.0 15.0 0.00 0.00 0.00 88 1014.6
20220706095304 78 48 7.0 15.0 0.00 0.00 0.00 88 1014.6
20220706095204 78 48 7.0 15.0 0.00 0.00 0.00 88 1014.6
20220706095103 78 50 7.0 13.0 0.00 0.00 0.00 88 1014.6
20220706095003 78 50 7.0 13.0 0.00 0.00 0.00 88 1014.6
20220706094904 78 49 7.0 13.0 0.00 0.00 0.00 88 1014.6
20220706094804 78 48 7.0 13.0 0.00 0.00 0.00 88 1014.6
20220706094704 78 48 7.0 13.0 0.00 0.00 0.00 88 1014.6
20220706094605 78 48 7.0 13.0 0.00 0.00 0.00 88 1014.6
20220706094503 78 47 7.0 13.0 0.00 0.00 0.00 88 1014.7
20220706094403 78 47 7.0 14.0 0.00 0.00 0.00 88 1014.6
20220706094304 78 46 7.0 14.0 0.00 0.00 0.00 88 1014.7
20220706094204 78 46 7.0 14.0 0.00 0.00 0.00 88 1014.7
20220706094104 78 46 8.0 14.0 0.00 0.00 0.00 88 1014.6
20220706094004 78 45 8.0 14.0 0.00 0.00 0.00 88 1014.5
20220706093903 78 46 8.0 14.0 0.00 0.00 0.00 88 1014.6
20220706093803 78 45 8.0 14.0 0.00 0.00 0.00 88 1014.6
20220706093704 78 45 8.0 14.0 0.00 0.00 0.00 88 1014.6
20220706093605 78 44 8.0 14.0 0.00 0.00 0.00 88 1014.6
20220706093504 78 45 8.0 14.0 0.00 0.00 0.00 88 1014.6
20220706093404 78 45 8.0 13.0 0.00 0.00 0.00 88 1014.5
20220706093303 78 45 8.0 13.0 0.00 0.00 0.00 88 1014.5
20220706093205 78 44 8.0 13.0 0.00 0.00 0.00 88 1014.5
20220706093104 78 43 8.0 14.0 0.00 0.00 0.00 88 1014.6
20220706093004 78 42 8.0 17.0 0.00 0.00 0.00 88 1014.6
20220706092903 78 42 8.0 17.0 0.00 0.00 0.00 88 1014.6
20220706092804 78 42 9.0 17.0 0.00 0.00 0.00 88 1014.6
20220706092704 78 43 8.0 17.0 0.00 0.00 0.00 88 1014.6
20220706092604 78 43 8.0 17.0 0.00 0.00 0.00 88 1014.5
20220706092504 78 41 8.0 17.0 0.00 0.00 0.00 88 1014.6
20220706092405 78 40 9.0 17.0 0.00 0.00 0.00 88 1014.6
20220706092304 78 41 9.0 17.0 0.00 0.00 0.00 88 1014.5
20220706092204 78 41 9.0 17.0 0.00 0.00 0.00 88 1014.6
20220706092104 78 42 8.0 17.0 0.00 0.00 0.00 88 1014.5
20220706092004 78 43 8.0 16.0 0.00 0.00 0.00 88 1014.5
20220706091904 78 45 8.0 16.0 0.00 0.00 0.00 88 1014.5
20220706091804 78 44 8.0 17.0 0.00 0.00 0.00 88 1014.5
20220706091704 78 43 8.0 17.0 0.00 0.00 0.00 88 1014.6
20220706091606 78 43 8.0 17.0 0.00 0.00 0.00 88 1014.6
20220706091504 78 43 9.0 17.0 0.00 0.00 0.00 88 1014.6
20220706091404 78 45 9.0 17.0 0.00 0.00 0.00 88 1014.6
20220706091304 78 45 9.0 17.0 0.00 0.00 0.00 88 1014.6
20220706091204 78 44 9.0 17.0 0.00 0.00 0.00 88 1014.6
20220706091104 78 44 9.0 17.0 0.00 0.00 0.00 88 1014.7
20220706091004 78 43 9.0 17.0 0.00 0.00 0.00 88 1014.6
20220706090903 78 42 9.0 18.0 0.00 0.00 0.00 88 1014.6
20220706090804 78 43 8.0 18.0 0.00 0.00 0.00 88 1014.6
20220706090704 78 42 8.0 18.0 0.00 0.00 0.00 88 1014.6
20220706090604 78 43 8.0 18.0 0.00 0.00 0.00 88 1014.6
20220706090504 78 43 8.0 18.0 0.00 0.00 0.00 88 1014.6
20220706090404 78 44 8.0 18.0 0.00 0.00 0.00 88 1014.6
20220706090304 78 43 8.0 18.0 0.00 0.00 0.00 88 1014.7
20220706090204 78 44 8.0 18.0 0.00 0.00 0.00 88 1014.7
20220706090104 78 43 8.0 18.0 0.00 0.00 0.00 88 1014.7
20220706090005 78 45 8.0 18.0 0.00 0.00 0.00 88 1014.6
20220706085903 78 45 8.0 16.0 0.00 0.00 0.00 88 1014.7
20220706085803 78 44 8.0 16.0 0.00 0.00 0.00 88 1014.7
20220706085703 78 45 8.0 16.0 0.00 0.00 0.00 88 1014.7
20220706085606 78 45 8.0 16.0 0.00 0.00 0.00 88 1014.7
20220706085504 78 46 8.0 16.0 0.00 0.00 0.00 88 1014.8
20220706085404 78 43 8.0 16.0 0.00 0.00 0.00 88 1014.7
20220706085303 78 43 8.0 16.0 0.00 0.00 0.00 88 1014.7
20220706085204 78 42 8.0 14.0 0.00 0.00 0.00 88 1014.8
20220706085104 78 43 8.0 14.0 0.00 0.00 0.00 88 1014.7
20220706085004 78 42 8.0 14.0 0.00 0.00 0.00 88 1014.8
20220706084904 78 42 8.0 14.0 0.00 0.00 0.00 88 1014.7
20220706084804 78 42 8.0 14.0 0.00 0.00 0.00 88 1014.7
20220706084703 78 42 7.0 14.0 0.00 0.00 0.00 88 1014.7
20220706084604 78 42 8.0 14.0 0.00 0.00 0.00 88 1014.7
20220706084504 78 42 8.0 14.0 0.00 0.00 0.00 88 1014.7
20220706084404 78 44 8.0 16.0 0.00 0.00 0.00 88 1014.7
20220706084304 78 45 7.0 16.0 0.00 0.00 0.00 88 1014.7
20220706084205 78 45 8.0 16.0 0.00 0.00 0.00 88 1014.7
20220706084104 78 45 8.0 16.0 0.00 0.00 0.00 88 1014.7
20220706084004 78 43 8.0 16.0 0.00 0.00 0.00 88 1014.7
20220706083904 78 43 8.0 16.0 0.00 0.00 0.00 87 1014.7
20220706083805 78 43 8.0 16.0 0.00 0.00 0.00 87 1014.7
20220706083704 78 44 8.0 16.0 0.00 0.00 0.00 87 1014.7
20220706083605 78 44 8.0 16.0 0.00 0.00 0.00 87 1014.7
20220706083504 78 43 8.0 16.0 0.00 0.00 0.00 87 1014.7
20220706083404 78 40 8.0 16.0 0.00 0.00 0.00 87 1014.7
20220706083304 78 39 8.0 16.0 0.00 0.00 0.00 87 1014.7
20220706083204 78 39 8.0 15.0 0.00 0.00 0.00 87 1014.6
20220706083103 78 40 7.0 15.0 0.00 0.00 0.00 87 1014.7
20220706083004 78 42 6.0 15.0 0.00 0.00 0.00 88 1014.7
20220706082904 78 41 7.0 15.0 0.00 0.00 0.00 88 1014.7
20220706082804 78 40 7.0 15.0 0.00 0.00 0.00 88 1014.7
20220706082704 78 38 7.0 14.0 0.00 0.00 0.00 88 1014.7
20220706082604 78 37 7.0 14.0 0.00 0.00 0.00 88 1014.7
20220706082504 78 37 7.0 14.0 0.00 0.00 0.00 88 1014.6
20220706082404 78 38 7.0 16.0 0.00 0.00 0.00 88 1014.7
20220706082304 78 39 7.0 16.0 0.00 0.00 0.00 88 1014.7
20220706082204 78 38 7.0 16.0 0.00 0.00 0.00 88 1014.6
20220706082104 79 36 7.0 16.0 0.00 0.00 0.00 88 1014.6
20220706082005 79 35 7.0 16.0 0.00 0.00 0.00 88 1014.7
20220706081904 78 34 7.0 16.0 0.00 0.00 0.00 88 1014.7
20220706081804 79 35 7.0 16.0 0.00 0.00 0.00 87 1014.7
20220706081703 79 34 7.0 16.0 0.00 0.00 0.00 87 1014.6
20220706081604 79 34 7.0 16.0 0.00 0.00 0.00 87 1014.6
20220706081504 79 35 7.0 16.0 0.00 0.00 0.00 87 1014.6
20220706081404 79 34 7.0 14.0 0.00 0.00 0.00 87 1014.7
20220706081303 79 32 7.0 13.0 0.00 0.00 0.00 87 1014.7
20220706081203 79 33 6.0 13.0 0.00 0.00 0.00 87 1014.7
20220706081104 79 35 6.0 13.0 0.00 0.00 0.00 87 1014.8
20220706081004 79 34 6.0 13.0 0.00 0.00 0.00 87 1014.7
20220706080904 79 35 6.0 13.0 0.00 0.00 0.00 87 1014.7
20220706080805 79 34 6.0 14.0 0.00 0.00 0.00 87 1014.7
20220706080704 79 35 6.0 14.0 0.00 0.00 0.00 87 1014.7
20220706080604 79 35 6.0 14.0 0.00 0.00 0.00 87 1014.8
20220706080503 79 33 6.0 14.0 0.00 0.00 0.00 87 1014.7
20220706080403 79 35 6.0 14.0 0.00 0.00 0.00 87 1014.7
20220706080303 79 35 6.0 14.0 0.00 0.00 0.00 87 1014.7
20220706080205 79 33 6.0 14.0 0.00 0.00 0.00 87 1014.8
20220706080103 79 33 6.0 14.0 0.00 0.00 0.00 87 1014.8
20220706080003 79 34 6.0 14.0 0.00 0.00 0.00 87 1014.8
20220706075903 79 35 6.0 14.0 0.00 0.00 0.00 87 1014.7
20220706075804 79 36 5.0 14.0 0.00 0.00 0.00 87 1014.7
20220706075704 79 35 5.0 14.0 0.00 0.00 0.00 87 1014.8
20220706075604 79 36 6.0 14.0 0.00 0.00 0.00 87 1014.7
20220706075503 79 37 5.0 11.0 0.00 0.00 0.00 87 1014.6
20220706075405 79 36 5.0 11.0 0.00 0.00 0.00 87 1014.7
20220706075303 79 38 6.0 11.0 0.00 0.00 0.00 87 1014.7
20220706075203 79 40 6.0 12.0 0.00 0.00 0.00 87 1014.7
20220706075104 79 40 6.0 13.0 0.00 0.00 0.00 87 1014.7
20220706075005 79 40 6.0 13.0 0.00 0.00 0.00 86 1014.7
20220706074904 79 40 6.0 13.0 0.00 0.00 0.00 86 1014.7
20220706074804 79 40 6.0 13.0 0.00 0.00 0.00 86 1014.7
20220706074703 79 39 7.0 13.0 0.00 0.00 0.00 86 1014.7
20220706074604 79 39 6.0 13.0 0.00 0.00 0.00 86 1014.8
20220706074504 79 41 6.0 13.0 0.00 0.00 0.00 86 1014.8
20220706074404 79 43 6.0 13.0 0.00 0.00 0.00 86 1014.8
20220706074304 79 42 7.0 13.0 0.00 0.00 0.00 86 1014.8
20220706074205 79 42 7.0 13.0 0.00 0.00 0.00 86 1014.8
20220706074104 79 42 7.0 15.0 0.00 0.00 0.00 86 1014.8
20220706074004 79 43 7.0 15.0 0.00 0.00 0.00 86 1014.8
20220706073903 79 43 7.0 15.0 0.00 0.00 0.00 85 1014.8
20220706073803 79 43 7.0 15.0 0.00 0.00 0.00 85 1014.8
20220706073704 79 44 7.0 15.0 0.00 0.00 0.00 85 1014.8
20220706073604 79 46 7.0 15.0 0.00 0.00 0.00 85 1014.8
20220706073503 79 43 7.0 15.0 0.00 0.00 0.00 85 1014.9
20220706073405 79 43 7.0 15.0 0.00 0.00 0.00 85 1014.8
20220706073303 79 42 7.0 15.0 0.00 0.00 0.00 85 1014.8
20220706073205 80 42 7.0 15.0 0.00 0.00 0.00 85 1014.8
20220706073104 80 41 6.0 14.0 0.00 0.00 0.00 85 1014.7
20220706073004 80 41 6.0 13.0 0.00 0.00 0.00 84 1014.7
20220706072904 80 41 7.0 13.0 0.00 0.00 0.00 84 1014.8
20220706072804 80 41 7.0 13.0 0.00 0.00 0.00 84 1014.7
20220706072704 80 41 7.0 14.0 0.00 0.00 0.00 84 1014.8
20220706072604 80 41 8.0 14.0 0.00 0.00 0.00 84 1014.8
20220706072503 80 43 8.0 14.0 0.00 0.00 0.00 84 1014.8
20220706072404 80 42 8.0 14.0 0.00 0.00 0.00 84 1014.8
20220706072304 80 43 8.0 14.0 0.00 0.00 0.00 84 1014.9
20220706072204 80 43 8.0 14.0 0.00 0.00 0.00 84 1014.8
20220706072103 80 44 8.0 14.0 0.00 0.00 0.00 84 1014.9
20220706072004 80 45 8.0 14.0 0.00 0.00 0.00 84 1014.9
20220706071903 80 44 8.0 14.0 0.00 0.00 0.00 84 1014.9
20220706071805 80 44 8.0 14.0 0.00 0.00 0.00 83 1014.9
20220706071704 80 44 7.0 14.0 0.00 0.00 0.00 83 1014.9
20220706071604 80 43 7.0 14.0 0.00 0.00 0.00 83 1014.9
20220706071503 80 43 7.0 12.0 0.00 0.00 0.00 83 1014.9
20220706071405 80 42 7.0 12.0 0.00 0.00 0.00 83 1014.9
20220706071304 80 41 7.0 12.0 0.00 0.00 0.00 83 1014.8
20220706071205 80 40 7.0 12.0 0.00 0.00 0.00 83 1014.8
20220706071104 80 39 7.0 12.0 0.00 0.00 0.00 83 1014.8
20220706071004 80 38 7.0 12.0 0.00 0.00 0.00 83 1014.8
20220706070904 80 37 7.0 12.0 0.00 0.00 0.00 83 1014.8
20220706070805 80 38 7.0 12.0 0.00 0.00 0.00 83 1014.8
20220706070703 80 37 7.0 13.0 0.00 0.00 0.00 83 1014.8
20220706070604 80 38 7.0 13.0 0.00 0.00 0.00 83 1014.8
20220706070504 80 38 7.0 13.0 0.00 0.00 0.00 82 1014.8
20220706070405 80 39 7.0 13.0 0.00 0.00 0.00 82 1014.8
20220706070304 80 40 7.0 13.0 0.00 0.00 0.00 82 1014.8
20220706070205 80 42 7.0 13.0 0.00 0.00 0.00 82 1014.8
20220706070104 80 43 7.0 13.0 0.00 0.00 0.00 82 1014.8
20220706070004 80 43 6.0 13.0 0.00 0.00 0.00 82 1014.8
20220706065904 80 45 6.0 13.0 0.00 0.00 0.00 82 1014.8
20220706065804 80 45 7.0 13.0 0.00 0.00 0.00 82 1014.8
20220706065704 80 45 7.0 12.0 0.00 0.00 0.00 82 1014.8
20220706065605 80 44 6.0 12.0 0.00 0.00 0.00 82 1014.8
20220706065503 80 43 6.0 12.0 0.00 0.00 0.00 82 1014.9
20220706065404 81 43 6.0 12.0 0.00 0.00 0.00 82 1014.8
20220706065304 81 43 6.0 12.0 0.00 0.00 0.00 82 1014.9
20220706065205 81 44 6.0 12.0 0.00 0.00 0.00 81 1014.9
20220706065103 81 44 6.0 12.0 0.00 0.00 0.00 81 1014.8
20220706065005 81 43 6.0 12.0 0.00 0.00 0.00 81 1014.8
20220706064903 81 42 6.0 12.0 0.00 0.00 0.00 81 1014.8
20220706064804 81 43 5.0 11.0 0.00 0.00 0.00 81 1014.9
20220706064704 81 45 5.0 11.0 0.00 0.00 0.00 81 1014.8
20220706064604 81 46 5.0 11.0 0.00 0.00 0.00 81 1014.8
20220706064503 81 47 4.0 11.0 0.00 0.00 0.00 81 1014.9
20220706064403 81 47 4.0 10.0 0.00 0.00 0.00 81 1014.8
20220706064303 81 43 4.0 7.0 0.00 0.00 0.00 81 1014.8
20220706064206 81 41 3.0 7.0 0.00 0.00 0.00 81 1014.8
20220706064104 81 40 3.0 7.0 0.00 0.00 0.00 81 1014.8
20220706064004 81 40 3.0 7.0 0.00 0.00 0.00 81 1014.8
20220706063904 81 36 3.0 7.0 0.00 0.00 0.00 81 1014.8
20220706063805 81 31 3.0 7.0 0.00 0.00 0.00 81 1014.8
20220706063704 81 26 3.0 7.0 0.00 0.00 0.00 81 1014.8
20220706063603 81 22 3.0 7.0 0.00 0.00 0.00 80 1014.8
20220706063504 81 21 3.0 7.0 0.00 0.00 0.00 80 1014.8
20220706063405 81 16 3.0 7.0 0.00 0.00 0.00 80 1014.8
20220706063303 81 20 3.0 7.0 0.00 0.00 0.00 80 1014.8
20220706063203 81 22 3.0 8.0 0.00 0.00 0.00 80 1014.8
20220706063104 81 24 3.0 8.0 0.00 0.00 0.00 80 1014.8
20220706063006 81 23 3.0 8.0 0.00 0.00 0.00 80 1014.8
20220706062904 81 26 3.0 8.0 0.00 0.00 0.00 80 1014.8
20220706062804 81 31 3.0 8.0 0.00 0.00 0.00 80 1014.8
20220706062703 81 31 3.0 8.0 0.00 0.00 0.00 80 1014.8
20220706062604 81 29 4.0 8.0 0.00 0.00 0.00 80 1014.8
20220706062503 81 28 4.0 10.0 0.00 0.00 0.00 80 1014.8
20220706062405 81 29 4.0 10.0 0.00 0.00 0.00 80 1014.8
20220706062303 81 28 4.0 10.0 0.00 0.00 0.00 79 1014.8
20220706062204 82 26 4.0 10.0 0.00 0.00 0.00 79 1014.8
20220706062103 82 22 4.0 10.0 0.00 0.00 0.00 79 1014.8
20220706062004 82 24 4.0 10.0 0.00 0.00 0.00 79 1014.8
20220706061904 82 21 4.0 10.0 0.00 0.00 0.00 79 1014.8
20220706061804 82 20 4.0 10.0 0.00 0.00 0.00 79 1014.7
20220706061704 82 21 4.0 10.0 0.00 0.00 0.00 79 1014.8
20220706061604 82 23 4.0 10.0 0.00 0.00 0.00 79 1014.8
20220706061503 82 25 4.0 8.0 0.00 0.00 0.00 78 1014.8
20220706061403 82 25 4.0 8.0 0.00 0.00 0.00 78 1014.8
20220706061304 82 27 4.0 8.0 0.00 0.00 0.00 78 1014.9
20220706061205 82 28 4.0 8.0 0.00 0.00 0.00 78 1014.8
20220706061104 82 30 4.0 8.0 0.00 0.00 0.00 78 1014.9
20220706061004 82 27 4.0 8.0 0.00 0.00 0.00 78 1014.9
20220706060904 82 29 4.0 9.0 0.00 0.00 0.00 78 1014.9
20220706060804 82 27 4.0 9.0 0.00 0.00 0.00 78 1014.9
20220706060703 82 26 4.0 9.0 0.00 0.00 0.00 78 1014.9
20220706060603 82 29 4.0 9.0 0.00 0.00 0.00 78 1014.9
20220706060503 82 26 4.0 9.0 0.00 0.00 0.00 77 1014.9
20220706060404 82 27 4.0 9.0 0.00 0.00 0.00 77 1014.9
20220706060304 82 25 4.0 9.0 0.00 0.00 0.00 77 1015.0
20220706060204 82 22 4.0 9.0 0.00 0.00 0.00 77 1015.0
20220706060103 82 22 4.0 9.0 0.00 0.00 0.00 77 1015.0
20220706060005 82 23 4.0 9.0 0.00 0.00 0.00 77 1015.1
20220706055903 82 22 4.0 9.0 0.00 0.00 0.00 77 1015.0
20220706055804 82 22 4.0 9.0 0.00 0.00 0.00 77 1015.1
20220706055703 82 23 4.0 9.0 0.00 0.00 0.00 77 1015.0
20220706055604 82 21 4.0 9.0 0.00 0.00 0.00 77 1015.0
20220706055503 82 22 3.0 9.0 0.00 0.00 0.00 77 1015.0
20220706055405 82 22 3.0 9.0 0.00 0.00 0.00 76 1015.0
20220706055304 82 24 3.0 9.0 0.00 0.00 0.00 76 1015.1
20220706055204 83 28 3.0 9.0 0.00 0.00 0.00 76 1015.0
20220706055103 83 26 3.0 9.0 0.00 0.00 0.00 76 1015.0
20220706055005 83 28 3.0 9.0 0.00 0.00 0.00 76 1015.0
20220706054904 83 28 3.0 9.0 0.00 0.00 0.00 76 1015.0
20220706054805 83 26 3.0 9.0 0.00 0.00 0.00 76 1015.1
20220706054704 83 21 2.0 9.0 0.00 0.00 0.00 76 1015.0
20220706054604 83 13 2.0 9.0 0.00 0.00 0.00 76 1014.9
20220706054503 83 13 2.0 6.0 0.00 0.00 0.00 75 1014.9
20220706054405 83 8 2.0 6.0 0.00 0.00 0.00 75 1014.9
20220706054304 83 11 3.0 6.0 0.00 0.00 0.00 75 1014.8
20220706054205 83 11 3.0 6.0 0.00 0.00 0.00 75 1014.9
20220706054104 83 2 2.0 6.0 0.00 0.00 0.00 75 1014.8
20220706054004 83 354 2.0 6.0 0.00 0.00 0.00 75 1014.9
20220706053903 83 353 3.0 9.0 0.00 0.00 0.00 75 1014.8
20220706053803 83 360 3.0 9.0 0.00 0.00 0.00 75 1014.8
20220706053703 83 7 3.0 9.0 0.00 0.00 0.00 75 1014.8
20220706053603 83 11 4.0 9.0 0.00 0.00 0.00 74 1014.8
20220706053503 83 10 4.0 9.0 0.00 0.00 0.00 74 1014.8
20220706053404 83 10 4.0 9.0 0.00 0.00 0.00 74 1014.8
20220706053304 83 9 4.0 9.0 0.00 0.00 0.00 74 1014.8
20220706053204 83 7 4.0 9.0 0.00 0.00 0.00 74 1014.8
20220706053104 83 12 4.0 9.0 0.00 0.00 0.00 74 1014.8
20220706053003 83 14 4.0 9.0 0.00 0.00 0.00 74 1014.8
20220706052904 83 16 4.0 9.0 0.00 0.00 0.00 74 1014.8
20220706052803 84 18 4.0 9.0 0.00 0.00 0.00 74 1014.8
20220706052704 84 18 4.0 9.0 0.00 0.00 0.00 74 1014.9
20220706052605 84 19 4.0 9.0 0.00 0.00 0.00 74 1014.8
20220706052504 84 23 4.0 8.0 0.00 0.00 0.00 74 1014.9
20220706052404 84 26 4.0 8.0 0.00 0.00 0.00 74 1014.9
20220706052304 84 30 4.0 9.0 0.00 0.00 0.00 74 1014.8
20220706052204 84 33 4.0 9.0 0.00 0.00 0.00 74 1014.9
20220706052103 84 33 4.0 9.0 0.00 0.00 0.00 73 1014.9
20220706052003 84 30 4.0 9.0 0.00 0.00 0.00 73 1014.9
20220706051903 84 27 5.0 9.0 0.00 0.00 0.00 73 1015.0
20220706051804 84 26 5.0 9.0 0.00 0.00 0.00 73 1015.0
20220706051704 84 23 4.0 9.0 0.00 0.00 0.00 73 1015.0
20220706051605 84 21 4.0 9.0 0.00 0.00 0.00 73 1015.0
20220706051504 84 21 4.0 9.0 0.00 0.00 0.00 73 1015.0
20220706051404 84 21 4.0 9.0 0.00 0.00 0.00 73 1015.1
20220706051304 84 18 4.0 9.0 0.00 0.00 0.00 72 1015.0
20220706051203 84 15 4.0 9.0 0.00 0.00 0.00 72 1015.1
20220706051104 84 10 4.0 9.0 0.00 0.00 0.00 72 1015.1
20220706051004 84 10 4.0 10.0 0.00 0.00 0.00 72 1015.0
20220706050904 84 13 4.0 10.0 0.00 0.00 0.00 72 1015.0
20220706050803 84 14 4.0 10.0 0.00 0.00 0.00 72 1015.0
20220706050703 84 20 3.0 10.0 0.00 0.00 0.00 71 1015.0
20220706050605 84 20 3.0 10.0 0.00 0.00 0.00 71 1015.0
20220706050504 84 17 4.0 10.0 0.00 0.00 0.00 71 1015.0
20220706050405 84 16 4.0 10.0 0.00 0.00 0.00 71 1015.0
20220706050304 84 17 3.0 10.0 0.00 0.00 0.00 71 1015.0
20220706050204 84 19 4.0 10.0 0.00 0.00 0.00 71 1015.0
20220706050103 84 25 3.0 10.0 0.00 0.00 0.00 71 1015.0
20220706050004 84 31 3.0 9.0 0.00 0.00 0.00 71 1014.9
20220706045903 84 32 3.0 9.0 0.00 0.00 0.00 71 1014.9
20220706045805 85 29 4.0 9.0 0.00 0.00 0.00 71 1014.9
20220706045703 85 28 4.0 9.0 0.00 0.00 0.00 70 1014.8
20220706045603 85 31 4.0 9.0 0.00 0.00 0.00 70 1014.9
20220706045504 85 35 4.0 9.0 0.00 0.00 0.00 70 1014.8
20220706045403 85 35 4.0 9.0 0.00 0.00 0.00 70 1014.8
20220706045304 85 36 4.0 9.0 0.00 0.00 0.00 70 1014.9
20220706045204 85 35 4.0 9.0 0.00 0.00 0.00 70 1014.8
20220706045104 85 34 4.0 9.0 0.00 0.00 0.00 70 1014.9
20220706045003 85 34 4.0 9.0 0.00 0.00 0.00 70 1014.9
20220706044903 85 35 5.0 10.0 0.00 0.00 0.00 70 1014.8
20220706044805 85 33 5.0 11.0 0.00 0.00 0.00 70 1014.7
20220706044703 85 34 5.0 11.0 0.00 0.00 0.00 70 1014.7
20220706044605 85 33 5.0 11.0 0.00 0.00 0.00 70 1014.7
20220706044503 85 31 5.0 11.0 0.00 0.00 0.00 69 1014.7
20220706044403 85 31 5.0 11.0 0.00 0.00 0.00 70 1014.7
20220706044304 85 31 5.0 11.0 0.00 0.00 0.00 69 1014.7
20220706044203 85 31 5.0 11.0 0.00 0.00 0.00 69 1014.7
20220706044103 85 30 5.0 12.0 0.00 0.00 0.00 69 1014.7
20220706044003 85 29 5.0 12.0 0.00 0.00 0.00 69 1014.7
20220706043904 85 25 5.0 12.0 0.00 0.00 0.00 69 1014.7
20220706043804 85 26 5.0 12.0 0.00 0.00 0.00 69 1014.7
20220706043703 85 25 5.0 12.0 0.00 0.00 0.00 69 1014.7
20220706043603 86 20 5.0 12.0 0.00 0.00 0.00 69 1014.7
20220706043503 86 20 5.0 12.0 0.00 0.00 0.00 68 1014.6
20220706043404 86 19 5.0 12.0 0.00 0.00 0.00 68 1014.6
20220706043303 86 20 5.0 12.0 0.00 0.00 0.00 68 1014.6
20220706043204 86 16 5.0 12.0 0.00 0.00 0.00 68 1014.6
20220706043104 86 16 6.0 13.0 0.00 0.00 0.00 67 1014.6
20220706043004 86 15 6.0 13.0 0.00 0.00 0.00 67 1014.6
20220706042903 86 15 6.0 13.0 0.00 0.00 0.00 67 1014.6
20220706042804 86 19 6.0 14.0 0.00 0.00 0.00 67 1014.6
20220706042704 86 20 7.0 14.0 0.00 0.00 0.00 67 1014.6
20220706042605 86 22 7.0 14.0 0.00 0.00 0.00 67 1014.5
20220706042503 86 25 7.0 14.0 0.00 0.00 0.00 66 1014.5
20220706042404 86 24 7.0 17.0 0.00 0.00 0.00 66 1014.5
20220706042303 86 25 7.0 17.0 0.00 0.00 0.00 66 1014.5
20220706042203 86 28 7.0 17.0 0.00 0.00 0.00 66 1014.5
20220706042103 86 30 7.0 17.0 0.00 0.00 0.00 66 1014.5
20220706042003 86 31 7.0 17.0 0.00 0.00 0.00 66 1014.5
20220706041903 86 32 6.0 17.0 0.00 0.00 0.00 66 1014.4
20220706041803 86 31 6.0 17.0 0.00 0.00 0.00 66 1014.4
20220706041704 86 32 6.0 17.0 0.00 0.00 0.00 66 1014.4
20220706041603 86 32 5.0 17.0 0.00 0.00 0.00 66 1014.4
20220706041503 86 28 5.0 17.0 0.00 0.00 0.00 66 1014.4
20220706041403 87 27 5.0 15.0 0.00 0.00 0.00 66 1014.4
20220706041304 87 23 5.0 11.0 0.00 0.00 0.00 66 1014.5
20220706041204 87 20 6.0 11.0 0.00 0.00 0.00 65 1014.4
20220706041104 87 18 6.0 11.0 0.00 0.00 0.00 65 1014.4
20220706041005 87 20 6.0 11.0 0.00 0.00 0.00 65 1014.4
20220706040904 87 19 5.0 11.0 0.00 0.00 0.00 65 1014.4
20220706040804 87 15 6.0 11.0 0.00 0.00 0.00 65 1014.4
20220706040703 87 12 6.0 11.0 0.00 0.00 0.00 65 1014.4
20220706040604 87 14 6.0 11.0 0.00 0.00 0.00 65 1014.4
20220706040503 87 17 5.0 11.0 0.00 0.00 0.00 65 1014.4
20220706040405 87 19 5.0 11.0 0.00 0.00 0.00 64 1014.4
20220706040303 87 20 5.0 11.0 0.00 0.00 0.00 64 1014.4
20220706040203 87 19 5.0 11.0 0.00 0.00 0.00 64 1014.4
20220706040103 87 17 6.0 11.0 0.00 0.00 0.00 64 1014.4
20220706040004 87 14 6.0 16.0 0.00 0.00 0.00 64 1014.4
20220706035904 87 11 7.0 16.0 0.00 0.00 0.00 64 1014.4
20220706035804 87 13 6.0 17.0 0.00 0.00 0.00 64 1014.3
20220706035703 87 13 7.0 17.0 0.00 0.00 0.00 64 1014.4
20220706035605 87 8 7.0 17.0 0.00 0.00 0.00 63 1014.3
20220706035504 88 4 7.0 17.0 0.00 0.00 0.00 63 1014.3
20220706035404 88 5 7.0 17.0 0.00 0.00 0.00 63 1014.3
20220706035304 88 3 6.0 17.0 0.00 0.00 0.00 63 1014.2
20220706035204 88 2 6.0 17.0 0.00 0.00 0.00 63 1014.2
20220706035103 88 1 7.0 17.0 0.00 0.00 0.00 63 1014.2
20220706035005 88 357 6.0 17.0 0.00 0.00 0.00 63 1014.1
20220706034903 88 358 6.0 17.0 0.00 0.00 0.00 62 1014.2
20220706034803 88 358 7.0 17.0 0.00 0.00 0.00 62 1014.2
20220706034704 88 355 7.0 17.0 0.00 0.00 0.00 62 1014.1
20220706034605 88 353 7.0 17.0 0.00 0.00 0.00 62 1014.1
20220706034503 88 355 7.0 17.0 0.00 0.00 0.00 62 1014.1
20220706034405 88 352 7.0 17.0 0.00 0.00 0.00 62 1014.1
20220706034304 88 352 8.0 17.0 0.00 0.00 0.00 62 1014.1
20220706034204 88 352 8.0 17.0 0.00 0.00 0.00 61 1014.1
20220706034103 88 352 8.0 17.0 0.00 0.00 0.00 61 1014.1
20220706034005 88 354 7.0 17.0 0.00 0.00 0.00 61 1014.1
20220706033904 88 353 7.0 17.0 0.00 0.00 0.00 61 1014.0
20220706033805 88 352 7.0 17.0 0.00 0.00 0.00 61 1014.0
20220706033703 88 356 7.0 17.0 0.00 0.00 0.00 61 1014.0
20220706033603 88 358 7.0 17.0 0.00 0.00 0.00 61 1013.9
20220706033503 88 357 6.0 14.0 0.00 0.00 0.00 61 1014.0
20220706033404 88 357 6.0 14.0 0.00 0.00 0.00 61 1014.0
20220706033304 89 358 6.0 14.0 0.00 0.00 0.00 60 1013.9
20220706033203 89 357 6.0 12.0 0.00 0.00 0.00 60 1013.9
20220706033104 89 359 6.0 13.0 0.00 0.00 0.00 60 1013.9
20220706033004 89 356 5.0 13.0 0.00 0.00 0.00 60 1013.8
20220706032903 89 357 6.0 15.0 0.00 0.00 0.00 60 1013.9
20220706032803 89 358 6.0 15.0 0.00 0.00 0.00 60 1013.8
20220706032703 89 353 5.0 15.0 0.00 0.00 0.00 60 1013.8
20220706032605 89 354 5.0 15.0 0.00 0.00 0.00 60 1013.8
20220706032503 89 351 6.0 15.0 0.00 0.00 0.00 59 1013.8
20220706032404 89 347 6.0 15.0 0.00 0.00 0.00 59 1013.7
20220706032304 89 343 6.0 15.0 0.00 0.00 0.00 59 1013.7
20220706032203 89 342 6.0 15.0 0.00 0.00 0.00 59 1013.7
20220706032103 89 337 6.0 15.0 0.00 0.00 0.00 59 1013.7
20220706032005 89 340 6.0 15.0 0.00 0.00 0.00 59 1013.7
20220706031903 89 339 6.0 14.0 0.00 0.00 0.00 59 1013.7
20220706031803 89 338 6.0 14.0 0.00 0.00 0.00 58 1013.7
20220706031703 89 343 6.0 14.0 0.00 0.00 0.00 58 1013.7
20220706031603 89 340 6.0 14.0 0.00 0.00 0.00 58 1013.6
20220706031503 89 340 6.0 13.0 0.00 0.00 0.00 58 1013.6
20220706031403 89 342 6.0 13.0 0.00 0.00 0.00 58 1013.6
20220706031305 89 346 6.0 15.0 0.00 0.00 0.00 58 1013.6
20220706031203 90 347 6.0 15.0 0.00 0.00 0.00 58 1013.6
20220706031103 90 348 6.0 15.0 0.00 0.00 0.00 58 1013.6
20220706031004 90 347 6.0 15.0 0.00 0.00 0.00 58 1013.5
20220706030905 90 348 7.0 15.0 0.00 0.00 0.00 58 1013.6
20220706030803 90 344 7.0 15.0 0.00 0.00 0.00 58 1013.5
20220706030704 90 342 7.0 15.0 0.00 0.00 0.00 57 1013.4
20220706030603 90 342 7.0 15.0 0.00 0.00 0.00 57 1013.4
20220706030505 90 342 7.0 15.0 0.00 0.00 0.00 57 1013.4
20220706030404 90 341 8.0 16.0 0.00 0.00 0.00 57 1013.4
20220706030303 90 339 7.0 16.0 0.00 0.00 0.00 57 1013.3
20220706030204 90 339 7.0 16.0 0.00 0.00 0.00 57 1013.3
20220706030105 90 337 7.0 16.0 0.00 0.00 0.00 57 1013.3
20220706030003 90 335 7.0 16.0 0.00 0.00 0.00 57 1013.3
20220706025903 90 332 7.0 16.0 0.00 0.00 0.00 57 1013.3
20220706025804 90 332 7.0 16.0 0.00 0.00 0.00 57 1013.3
20220706025705 90 331 7.0 16.0 0.00 0.00 0.00 57 1013.3
20220706025603 90 330 7.0 16.0 0.00 0.00 0.00 56 1013.3
20220706025505 90 330 7.0 16.0 0.00 0.00 0.00 56 1013.3
20220706025404 90 330 6.0 15.0 0.00 0.00 0.00 56 1013.3
20220706025305 90 328 6.0 15.0 0.00 0.00 0.00 56 1013.3
20220706025204 90 325 6.0 15.0 0.00 0.00 0.00 56 1013.3
20220706025104 90 326 6.0 15.0 0.00 0.00 0.00 56 1013.2
20220706025004 90 324 6.0 14.0 0.00 0.00 0.00 56 1013.2
20220706024904 90 326 6.0 14.0 0.00 0.00 0.00 55 1013.2
20220706024803 90 327 6.0 14.0 0.00 0.00 0.00 55 1013.2
20220706024704 90 327 6.0 14.0 0.00 0.00 0.00 55 1013.2
20220706024603 90 324 6.0 14.0 0.00 0.00 0.00 55 1013.2
20220706024505 90 323 6.0 14.0 0.00 0.00 0.00 55 1013.1
20220706024404 90 323 6.0 14.0 0.00 0.00 0.00 55 1013.1
20220706024304 90 324 6.0 14.0 0.00 0.00 0.00 55 1013.1
20220706024204 90 327 6.0 14.0 0.00 0.00 0.00 54 1013.0
20220706024103 90 328 6.0 14.0 0.00 0.00 0.00 54 1013.0
20220706024004 90 330 6.0 10.0 0.00 0.00 0.00 54 1013.0
20220706023904 90 328 5.0 10.0 0.00 0.00 0.00 54 1013.0
20220706023804 90 326 5.0 10.0 0.00 0.00 0.00 54 1013.0
20220706023703 90 326 5.0 10.0 0.00 0.00 0.00 54 1013.0
20220706023603 90 328 5.0 10.0 0.00 0.00 0.00 54 1013.0
20220706023505 90 329 5.0 10.0 0.00 0.00 0.00 53 1013.0
20220706023404 91 330 5.0 10.0 0.00 0.00 0.00 53 1013.0
20220706023305 91 329 4.0 10.0 0.00 0.00 0.00 53 1012.9
20220706023203 91 324 4.0 10.0 0.00 0.00 0.00 53 1013.0
20220706023103 91 324 4.0 10.0 0.00 0.00 0.00 52 1013.0
20220706023003 91 321 4.0 10.0 0.00 0.00 0.00 52 1012.9
20220706022904 91 315 3.0 10.0 0.00 0.00 0.00 52 1012.9
20220706022804 91 315 3.0 10.0 0.00 0.00 0.00 52 1012.9
20220706022704 91 309 3.0 10.0 0.00 0.00 0.00 52 1012.9
20220706022604 91 302 3.0 10.0 0.00 0.00 0.00 51 1012.8
20220706022504 91 290 2.0 8.0 0.00 0.00 0.00 51 1012.8
20220706022403 91 282 2.0 8.0 0.00 0.00 0.00 51 1012.8
20220706022305 91 276 2.0 8.0 0.00 0.00 0.00 51 1012.7
20220706022204 91 275 2.0 8.0 0.00 0.00 0.00 51 1012.8
20220706022104 91 262 2.0 7.0 0.00 0.00 0.00 51 1012.8
20220706022003 91 264 2.0 4.0 0.00 0.00 0.00 50 1012.7
20220706021905 91 267 2.0 4.0 0.00 0.00 0.00 50 1012.7
20220706021803 91 269 2.0 4.0 0.00 0.00 0.00 50 1012.7
20220706021703 91 271 2.0 4.0 0.00 0.00 0.00 50 1012.8
20220706021603 91 276 2.0 4.0 0.00 0.00 0.00 50 1012.8
20220706021503 92 278 2.0 5.0 0.00 0.00 0.00 50 1012.8
20220706021404 92 284 2.0 5.0 0.00 0.00 0.00 49 1012.8
20220706021303 92 285 2.0 5.0 0.00 0.00 0.00 49 1012.7
20220706021203 92 286 2.0 5.0 0.00 0.00 0.00 49 1012.7
20220706021103 92 287 2.0 5.0 0.00 0.00 0.00 49 1012.7
20220706021003 92 290 3.0 6.0 0.00 0.00 0.00 49 1012.7
20220706020904 92 291 3.0 6.0 0.00 0.00 0.00 49 1012.7
20220706020804 92 292 2.0 6.0 0.00 0.00 0.00 48 1012.7
20220706020704 92 295 2.0 6.0 0.00 0.00 0.00 48 1012.7
20220706020603 92 299 2.0 6.0 0.00 0.00 0.00 48 1012.7
20220706020503 92 302 2.0 6.0 0.00 0.00 0.00 48 1012.6
20220706020403 92 302 2.0 6.0 0.00 0.00 0.00 48 1012.6
20220706020304 92 304 2.0 6.0 0.00 0.00 0.00 48 1012.6
20220706020204 92 305 2.0 6.0 0.00 0.00 0.00 48 1012.5
20220706020105 92 306 2.0 6.0 0.00 0.00 0.00 48 1012.6
20220706020003 92 306 2.0 6.0 0.00 0.00 0.00 48 1012.5
20220706015903 92 306 2.0 5.0 0.00 0.00 0.00 48 1012.5
20220706015803 92 305 2.0 5.0 0.00 0.00 0.00 48 1012.5
20220706015705 92 304 2.0 5.0 0.00 0.00 0.00 47 1012.4
20220706015603 92 301 2.0 5.0 0.00 0.00 0.00 47 1012.5
20220706015504 93 299 2.0 5.0 0.00 0.00 0.00 47 1012.4
20220706015403 93 299 2.0 5.0 0.00 0.00 0.00 47 1012.4
20220706015303 93 297 2.0 5.0 0.00 0.00 0.00 47 1012.5
20220706015204 93 301 2.0 5.0 0.00 0.00 0.00 47 1012.4
20220706015104 93 303 2.0 5.0 0.00 0.00 0.00 47 1012.4
20220706015004 93 307 2.0 5.0 0.00 0.00 0.00 47 1012.4
20220706014904 93 309 2.0 5.0 0.00 0.00 0.00 47 1012.4
20220706014804 93 306 2.0 6.0 0.00 0.00 0.00 47 1012.4
20220706014704 93 304 2.0 6.0 0.00 0.00 0.00 47 1012.4
20220706014603 93 306 3.0 6.0 0.00 0.00 0.00 47 1012.4
20220706014503 93 303 3.0 6.0 0.00 0.00 0.00 46 1012.4
20220706014403 93 301 3.0 6.0 0.00 0.00 0.00 46 1012.4
20220706014305 93 300 3.0 6.0 0.00 0.00 0.00 46 1012.4
20220706014204 93 294 3.0 6.0 0.00 0.00 0.00 47 1012.4
20220706014104 93 291 2.0 6.0 0.00 0.00 0.00 46 1012.3
20220706014003 93 286 2.0 6.0 0.00 0.00 0.00 46 1012.3
20220706013903 93 280 2.0 6.0 0.00 0.00 0.00 46 1012.4
20220706013804 93 286 2.0 6.0 0.00 0.00 0.00 46 1012.4
20220706013705 93 285 2.0 8.0 0.00 0.00 0.00 46 1012.4
20220706013604 94 281 2.0 8.0 0.00 0.00 0.00 46 1012.3
20220706013504 94 281 2.0 8.0 0.00 0.00 0.00 46 1012.3
20220706013403 94 281 2.0 8.0 0.00 0.00 0.00 46 1012.4
20220706013304 94 285 2.0 8.0 0.00 0.00 0.00 46 1012.3
20220706013204 94 292 2.0 8.0 0.00 0.00 0.00 46 1012.4
20220706013104 94 296 2.0 8.0 0.00 0.00 0.00 45 1012.4
20220706013003 94 300 2.0 8.0 0.00 0.00 0.00 45 1012.4
20220706012903 94 305 3.0 8.0 0.00 0.00 0.00 45 1012.3
20220706012803 94 299 2.0 8.0 0.00 0.00 0.00 45 1012.3
20220706012703 94 293 3.0 8.0 0.00 0.00 0.00 45 1012.3
20220706012603 94 298 3.0 8.0 0.00 0.00 0.00 45 1012.3
20220706012504 94 297 3.0 8.0 0.00 0.00 0.00 45 1012.3
20220706012403 94 296 3.0 8.0 0.00 0.00 0.00 45 1012.3
20220706012305 94 295 3.0 8.0 0.00 0.00 0.00 45 1012.3
20220706012204 94 291 3.0 8.0 0.00 0.00 0.00 45 1012.3
20220706012104 94 289 3.0 8.0 0.00 0.00 0.00 44 1012.2
20220706012004 94 288 3.0 8.0 0.00 0.00 0.00 44 1012.2
20220706011905 94 281 3.0 8.0 0.00 0.00 0.00 44 1012.2
20220706011803 95 283 3.0 8.0 0.00 0.00 0.00 44 1012.2
20220706011704 95 287 3.0 9.0 0.00 0.00 0.00 44 1012.2
20220706011603 95 286 3.0 9.0 0.00 0.00 0.00 44 1012.2
20220706011503 95 285 3.0 9.0 0.00 0.00 0.00 44 1012.2
20220706011404 95 285 3.0 9.0 0.00 0.00 0.00 44 1012.2
20220706011304 95 284 3.0 9.0 0.00 0.00 0.00 44 1012.1
20220706011203 95 281 3.0 9.0 0.00 0.00 0.00 44 1012.2
20220706011105 95 279 3.0 9.0 0.00 0.00 0.00 43 1012.2
20220706011004 95 282 3.0 9.0 0.00 0.00 0.00 43 1012.1
20220706010905 95 282 4.0 9.0 0.00 0.00 0.00 43 1012.2
20220706010803 95 285 4.0 12.0 0.00 0.00 0.00 43 1012.2
20220706010703 95 288 4.0 12.0 0.00 0.00 0.00 43 1012.1
20220706010603 95 289 4.0 12.0 0.00 0.00 0.00 43 1012.1
20220706010505 95 290 4.0 12.0 0.00 0.00 0.00 43 1012.1
20220706010403 95 294 4.0 12.0 0.00 0.00 0.00 43 1012.0
20220706010303 95 294 4.0 12.0 0.00 0.00 0.00 43 1012.0
20220706010203 95 296 4.0 12.0 0.00 0.00 0.00 43 1012.0
20220706010105 96 299 4.0 12.0 0.00 0.00 0.00 42 1012.0
20220706010004 96 301 4.0 12.0 0.00 0.00 0.00 42 1012.0
20220706005904 96 307 4.0 12.0 0.00 0.00 0.00 42 1012.1
20220706005803 96 305 4.0 12.0 0.00 0.00 0.00 43 1012.0
20220706005703 96 305 4.0 12.0 0.00 0.00 0.00 42 1012.0
20220706005603 96 305 4.0 11.0 0.00 0.00 0.00 43 1012.0
20220706005505 96 304 4.0 11.0 0.00 0.00 0.00 43 1012.0
20220706005404 96 304 4.0 11.0 0.00 0.00 0.00 43 1012.0
20220706005305 96 305 4.0 11.0 0.00 0.00 0.00 43 1012.0
20220706005203 96 304 4.0 11.0 0.00 0.00 0.00 43 1012.0
20220706005105 96 299 4.0 11.0 0.00 0.00 0.00 42 1012.0
20220706005003 96 291 4.0 11.0 0.00 0.00 0.00 42 1011.9
20220706004904 96 282 4.0 11.0 0.00 0.00 0.00 42 1011.9
20220706004803 96 281 4.0 11.0 0.00 0.00 0.00 42 1011.9
20220706004703 96 278 4.0 11.0 0.00 0.00 0.00 43 1011.9
20220706004603 96 277 4.0 14.0 0.00 0.00 0.00 42 1011.9
20220706004503 96 281 4.0 14.0 0.00 0.00 0.00 43 1011.9
20220706004404 96 279 4.0 14.0 0.00 0.00 0.00 43 1011.9
20220706004305 96 280 4.0 14.0 0.00 0.00 0.00 43 1011.9
20220706004204 96 281 5.0 14.0 0.00 0.00 0.00 43 1011.9
20220706004104 96 281 4.0 14.0 0.00 0.00 0.00 43 1011.9
20220706004003 96 281 4.0 14.0 0.00 0.00 0.00 42 1011.9
20220706003903 96 280 4.0 14.0 0.00 0.00 0.00 43 1011.9
20220706003804 96 281 4.0 14.0 0.00 0.00 0.00 43 1011.9
20220706003704 96 282 4.0 14.0 0.00 0.00 0.00 42 1011.8
20220706003604 96 281 4.0 12.0 0.00 0.00 0.00 42 1011.8
20220706003503 96 278 4.0 12.0 0.00 0.00 0.00 43 1011.8
20220706003403 96 277 4.0 12.0 0.00 0.00 0.00 42 1011.8
20220706003303 96 274 4.0 12.0 0.00 0.00 0.00 42 1011.8
20220706003203 96 272 4.0 12.0 0.00 0.00 0.00 43 1011.8
20220706003105 96 273 4.0 12.0 0.00 0.00 0.00 42 1011.8
20220706003003 96 284 4.0 12.0 0.00 0.00 0.00 43 1011.8
20220706002904 96 288 4.0 12.0 0.00 0.00 0.00 42 1011.8
20220706002804 96 289 4.0 11.0 0.00 0.00 0.00 42 1011.8
20220706002705 96 286 5.0 11.0 0.00 0.00 0.00 43 1011.8
20220706002603 96 286 5.0 11.0 0.00 0.00 0.00 42 1011.8
20220706002504 97 287 5.0 11.0 0.00 0.00 0.00 42 1011.8
20220706002404 97 289 5.0 11.0 0.00 0.00 0.00 42 1011.8
20220706002304 97 291 5.0 11.0 0.00 0.00 0.00 42 1011.8
20220706002203 97 292 5.0 11.0 0.00 0.00 0.00 42 1011.8
20220706002103 97 293 5.0 13.0 0.00 0.00 0.00 42 1011.8
20220706002003 97 287 5.0 13.0 0.00 0.00 0.00 43 1011.8
20220706001903 97 285 5.0 13.0 0.00 0.00 0.00 42 1011.8
20220706001804 97 284 5.0 13.0 0.00 0.00 0.00 42 1011.8
20220706001704 97 290 6.0 13.0 0.00 0.00 0.00 42 1011.8
20220706001604 97 295 6.0 13.0 0.00 0.00 0.00 42 1011.9
20220706001504 97 296 6.0 13.0 0.00 0.00 0.00 42 1011.9
20220706001404 97 300 6.0 13.0 0.00 0.00 0.00 42 1011.9
20220706001304 97 304 6.0 13.0 0.00 0.00 0.00 42 1011.9
20220706001203 97 306 6.0 13.0 0.00 0.00 0.00 42 1011.9
20220706001105 97 307 7.0 16.0 0.00 0.00 0.00 42 1011.9
20220706001004 97 309 7.0 16.0 0.00 0.00 0.00 42 1011.9
20220706000905 97 309 7.0 16.0 0.00 0.00 0.00 42 1011.9
20220706000804 97 311 7.0 16.0 0.00 0.00 0.00 42 1012.0
20220706000704 97 310 6.0 16.0 0.00 0.00 0.00 42 1012.0
20220706000604 97 308 6.0 16.0 0.00 0.00 0.00 43 1011.9
20220706000504 97 307 6.0 16.0 0.00 0.00 0.00 42 1011.9
20220706000404 97 304 6.0 16.0 0.00 0.00 0.00 42 1011.9
20220706000305 97 301 6.0 16.0 0.00 0.00 0.00 42 1012.0
20220706000203 97 298 6.0 16.0 0.00 0.00 0.00 42 1011.9
20220706000105 97 291 5.0 13.0 0.00 0.00 0.00 42 1011.9
20220706000004 97 288 5.0 11.0 0.00 0.00 0.00 42 1012.0
20220705235904 97 289 5.0 11.0 0.00 0.00 0.00 42 1012.0
20220705235804 97 283 4.0 13.0 0.00 0.00 0.00 42 1012.0
20220705235705 97 286 5.0 13.0 0.00 0.00 0.00 42 1012.0
20220705235603 97 286 4.0 13.0 0.00 0.00 0.00 42 1012.0
20220705235505 97 286 4.0 13.0 0.00 0.00 0.00 43 1012.0
20220705235403 97 289 4.0 13.0 0.00 0.00 0.00 42 1012.0
20220705235304 97 292 4.0 13.0 0.00 0.00 0.00 42 1012.1
20220705235203 97 300 5.0 13.0 0.00 0.00 0.00 42 1012.1
20220705235103 97 300 5.0 13.0 0.00 0.00 0.00 42 1012.1
20220705235003 97 301 5.0 13.0 0.00 0.00 0.00 42 1012.1
20220705234905 97 309 5.0 13.0 0.00 0.00 0.00 42 1012.1
20220705234804 97 308 5.0 13.0 0.00 0.00 0.00 42 1012.1
20220705234704 97 303 5.0 13.0 0.00 0.00 0.00 42 1012.1
20220705234603 97 303 5.0 13.0 0.00 0.00 0.00 42 1012.1
20220705234503 97 303 5.0 13.0 0.00 0.00 0.00 42 1012.1
20220705234403 97 298 5.0 13.0 0.00 0.00 0.00 41 1012.0
20220705234303 97 292 5.0 13.0 0.00 0.00 0.00 41 1012.0
20220705234204 97 293 6.0 13.0 0.00 0.00 0.00 43 1012.1
20220705234104 97 299 6.0 13.0 0.00 0.00 0.00 41 1012.1
20220705234003 97 298 6.0 13.0 0.00 0.00 0.00 41 1012.0
20220705233903 97 295 6.0 13.0 0.00 0.00 0.00 42 1012.1
20220705233804 98 297 6.0 13.0 0.00 0.00 0.00 41 1012.1
20220705233704 98 298 6.0 13.0 0.00 0.00 0.00 41 1012.0
20220705233604 98 299 5.0 13.0 0.00 0.00 0.00 41 1012.0
20220705233503 98 297 5.0 13.0 0.00 0.00 0.00 41 1012.0
20220705233403 98 301 5.0 13.0 0.00 0.00 0.00 41 1012.1
20220705233305 98 303 5.0 13.0 0.00 0.00 0.00 41 1012.0
20220705233203 98 299 5.0 13.0 0.00 0.00 0.00 41 1012.0
20220705233105 98 301 5.0 13.0 0.00 0.00 0.00 41 1012.0
20220705233003 98 306 5.0 13.0 0.00 0.00 0.00 40 1012.0
20220705232903 99 304 5.0 13.0 0.00 0.00 0.00 41 1012.0
20220705232804 99 306 5.0 13.0 0.00 0.00 0.00 41 1012.0
20220705232704 99 307 5.0 13.0 0.00 0.00 0.00 41 1012.0
20220705232603 99 308 5.0 13.0 0.00 0.00 0.00 41 1012.0
20220705232505 99 310 5.0 13.0 0.00 0.00 0.00 41 1012.0
20220705232403 99 312 5.0 13.0 0.00 0.00 0.00 41 1012.0
20220705232304 99 313 5.0 13.0 0.00 0.00 0.00 40 1012.0
20220705232203 99 314 5.0 12.0 0.00 0.00 0.00 40 1012.1
20220705232103 99 308 5.0 11.0 0.00 0.00 0.00 40 1012.1
20220705232003 99 303 5.0 11.0 0.00 0.00 0.00 40 1012.1
20220705231904 99 309 5.0 11.0 0.00 0.00 0.00 41 1012.1
20220705231803 99 316 5.0 10.0 0.00 0.00 0.00 40 1012.0
20220705231703 99 324 5.0 10.0 0.00 0.00 0.00 40 1012.0
20220705231603 99 327 5.0 10.0 0.00 0.00 0.00 40 1012.0
20220705231504 99 324 5.0 10.0 0.00 0.00 0.00 40 1012.1
20220705231403 99 321 5.0 10.0 0.00 0.00 0.00 40 1012.0
20220705231305 99 324 5.0 10.0 0.00 0.00 0.00 40 1012.1
20220705231203 99 330 5.0 10.0 0.00 0.00 0.00 40 1012.1
20220705231103 100 340 5.0 11.0 0.00 0.00 0.00 40 1012.1
20220705231004 100 347 5.0 11.0 0.00 0.00 0.00 39 1012.1
20220705230903 100 346 4.0 11.0 0.00 0.00 0.00 39 1012.0
20220705230803 100 339 4.0 11.0 0.00 0.00 0.00 39 1012.1
20220705230704 100 332 4.0 11.0 0.00 0.00 0.00 38 1012.0
20220705230603 100 337 3.0 11.0 0.00 0.00 0.00 39 1012.2
20220705230505 100 339 4.0 11.0 0.00 0.00 0.00 39 1012.2
20220705230403 100 344 4.0 11.0 0.00 0.00 0.00 40 1012.2
20220705230305 100 346 4.0 11.0 0.00 0.00 0.00 39 1012.2
20220705230204 100 347 4.0 11.0 0.00 0.00 0.00 39 1012.2
20220705230104 100 352 4.0 9.0 0.00 0.00 0.00 39 1012.2
20220705230003 100 357 4.0 8.0 0.00 0.00 0.00 39 1012.1
20220705225903 100 4 4.0 8.0 0.00 0.00 0.00 40 1012.2
20220705225803 100 10 4.0 8.0 0.00 0.00 0.00 39 1012.2
20220705225703 100 16 4.0 10.0 0.00 0.00 0.00 39 1012.2
20220705225603 100 11 4.0 10.0 0.00 0.00 0.00 39 1012.2
20220705225504 100 13 4.0 10.0 0.00 0.00 0.00 37 1012.2
20220705225404 100 10 4.0 10.0 0.00 0.00 0.00 38 1012.2
20220705225304 100 5 4.0 10.0 0.00 0.00 0.00 38 1012.3
20220705225203 100 358 4.0 10.0 0.00 0.00 0.00 38 1012.3
20220705225103 100 348 4.0 10.0 0.00 0.00 0.00 38 1012.3
20220705225003 100 340 4.0 10.0 0.00 0.00 0.00 38 1012.3
20220705224904 100 338 4.0 10.0 0.00 0.00 0.00 38 1012.2
20220705224803 99 345 4.0 10.0 0.00 0.00 0.00 38 1012.3
20220705224705 99 342 5.0 11.0 0.00 0.00 0.00 38 1012.3
20220705224603 99 346 5.0 11.0 0.00 0.00 0.00 38 1012.3
20220705224503 100 350 5.0 11.0 0.00 0.00 0.00 38 1012.3
20220705224403 100 355 5.0 11.0 0.00 0.00 0.00 37 1012.3
20220705224305 100 356 4.0 11.0 0.00 0.00 0.00 38 1012.4
20220705224204 100 352 4.0 11.0 0.00 0.00 0.00 39 1012.3
20220705224104 100 350 4.0 11.0 0.00 0.00 0.00 39 1012.4
20220705224003 99 353 4.0 11.0 0.00 0.00 0.00 39 1012.4
20220705223903 99 346 4.0 11.0 0.00 0.00 0.00 39 1012.4
20220705223803 99 335 4.0 11.0 0.00 0.00 0.00 40 1012.4
20220705223704 99 332 4.0 9.0 0.00 0.00 0.00 40 1012.4
20220705223603 99 332 4.0 9.0 0.00 0.00 0.00 40 1012.4
20220705223503 99 341 5.0 12.0 0.00 0.00 0.00 40 1012.5
20220705223403 99 351 5.0 12.0 0.00 0.00 0.00 40 1012.5
20220705223303 99 358 5.0 12.0 0.00 0.00 0.00 40 1012.5
20220705223203 99 3 6.0 12.0 0.00 0.00 0.00 40 1012.5
20220705223105 99 12 6.0 12.0 0.00 0.00 0.00 41 1012.4
20220705223004 99 16 5.0 12.0 0.00 0.00 0.00 41 1012.4
20220705222903 99 23 5.0 12.0 0.00 0.00 0.00 40 1012.4
20220705222803 99 32 5.0 12.0 0.00 0.00 0.00 39 1012.4
20220705222703 99 38 5.0 12.0 0.00 0.00 0.00 40 1012.5
20220705222603 99 41 6.0 13.0 0.00 0.00 0.00 40 1012.5
20220705222503 99 39 5.0 13.0 0.00 0.00 0.00 39 1012.5
20220705222403 99 39 5.0 13.0 0.00 0.00 0.00 39 1012.5
20220705222305 99 42 5.0 13.0 0.00 0.00 0.00 39 1012.5
20220705222203 99 46 5.0 13.0 0.00 0.00 0.00 40 1012.5
20220705222103 99 46 5.0 13.0 0.00 0.00 0.00 40 1012.6
20220705222004 99 41 5.0 13.0 0.00 0.00 0.00 40 1012.6
20220705221903 99 35 5.0 13.0 0.00 0.00 0.00 40 1012.6
20220705221804 99 27 6.0 13.0 0.00 0.00 0.00 40 1012.6
20220705221704 99 26 6.0 13.0 0.00 0.00 0.00 40 1012.7
20220705221603 99 19 5.0 12.0 0.00 0.00 0.00 41 1012.7
20220705221504 99 8 6.0 18.0 0.00 0.00 0.00 40 1012.6
20220705221404 99 1 6.0 18.0 0.00 0.00 0.00 40 1012.7
20220705221303 99 349 6.0 18.0 0.00 0.00 0.00 40 1012.6
20220705221203 99 346 6.0 18.0 0.00 0.00 0.00 40 1012.6
20220705221103 99 342 6.0 18.0 0.00 0.00 0.00 40 1012.7
20220705221003 99 346 6.0 18.0 0.00 0.00 0.00 40 1012.7
20220705220904 99 354 6.0 18.0 0.00 0.00 0.00 40 1012.8
20220705220804 99 5 6.0 18.0 0.00 0.00 0.00 41 1012.8
20220705220705 99 9 6.0 18.0 0.00 0.00 0.00 40 1012.7
20220705220604 99 16 6.0 18.0 0.00 0.00 0.00 40 1012.8
20220705220504 99 27 6.0 17.0 0.00 0.00 0.00 41 1012.7
20220705220403 99 31 6.0 13.0 0.00 0.00 0.00 40 1012.8
20220705220303 99 36 6.0 13.0 0.00 0.00 0.00 40 1012.8
20220705220203 99 31 6.0 13.0 0.00 0.00 0.00 40 1012.8
20220705220105 99 31 6.0 13.0 0.00 0.00 0.00 40 1012.8
20220705220003 99 30 5.0 13.0 0.00 0.00 0.00 40 1012.8
20220705215903 99 28 5.0 13.0 0.00 0.00 0.00 39 1012.8
20220705215803 99 19 4.0 13.0 0.00 0.00 0.00 40 1012.8
20220705215703 99 13 4.0 13.0 0.00 0.00 0.00 40 1012.8
20220705215603 99 1 3.0 13.0 0.00 0.00 0.00 41 1012.8
20220705215503 99 350 4.0 13.0 0.00 0.00 0.00 40 1012.9
20220705215404 99 348 3.0 12.0 0.00 0.00 0.00 40 1012.9
20220705215304 99 352 4.0 12.0 0.00 0.00 0.00 39 1012.9
20220705215203 99 4 4.0 12.0 0.00 0.00 0.00 40 1012.9
20220705215103 99 11 4.0 12.0 0.00 0.00 0.00 41 1012.9
20220705215003 99 13 5.0 12.0 0.00 0.00 0.00 40 1012.9
20220705214905 99 7 5.0 12.0 0.00 0.00 0.00 40 1012.9
20220705214803 99 6 5.0 12.0 0.00 0.00 0.00 39 1013.1
20220705214703 99 4 6.0 12.0 0.00 0.00 0.00 39 1013.1
20220705214603 99 2 6.0 15.0 0.00 0.00 0.00 39 1013.1
20220705214505 99 2 6.0 15.0 0.00 0.00 0.00 40 1013.2
20220705214403 99 1 5.0 15.0 0.00 0.00 0.00 40 1013.2
20220705214304 99 356 5.0 15.0 0.00 0.00 0.00 41 1013.2
20220705214203 99 348 5.0 15.0 0.00 0.00 0.00 40 1013.2
20220705214103 99 342 5.0 15.0 0.00 0.00 0.00 40 1013.2
20220705214003 99 328 5.0 15.0 0.00 0.00 0.00 40 1013.1
20220705213903 99 325 5.0 15.0 0.00 0.00 0.00 41 1013.2
20220705213803 99 324 5.0 15.0 0.00 0.00 0.00 41 1013.2
20220705213703 99 321 5.0 15.0 0.00 0.00 0.00 40 1013.2
20220705213603 99 325 4.0 12.0 0.00 0.00 0.00 41 1013.2
20220705213504 99 335 5.0 12.0 0.00 0.00 0.00 41 1013.2
20220705213403 99 343 5.0 12.0 0.00 0.00 0.00 40 1013.2
20220705213305 99 351 5.0 12.0 0.00 0.00 0.00 41 1013.2
20220705213204 99 356 5.0 12.0 0.00 0.00 0.00 40 1013.2
20220705213103 99 1 5.0 12.0 0.00 0.00 0.00 41 1013.2
20220705213004 99 8 5.0 12.0 0.00 0.00 0.00 40 1013.3
20220705212905 99 12 5.0 11.0 0.00 0.00 0.00 40 1013.3
20220705212803 99 16 5.0 12.0 0.00 0.00 0.00 41 1013.3
20220705212703 99 21 5.0 12.0 0.00 0.00 0.00 41 1013.3
20220705212604 99 26 5.0 12.0 0.00 0.00 0.00 40 1013.3
20220705212504 99 27 5.0 12.0 0.00 0.00 0.00 40 1013.3
20220705212403 99 29 5.0 12.0 0.00 0.00 0.00 40 1013.3
20220705212304 99 28 5.0 12.0 0.00 0.00 0.00 40 1013.3
20220705212204 99 26 5.0 12.0 0.00 0.00 0.00 40 1013.3
20220705212105 99 25 5.0 12.0 0.00 0.00 0.00 42 1013.3
20220705212003 98 26 4.0 12.0 0.00 0.00 0.00 42 1013.3
20220705211903 98 25 4.0 12.0 0.00 0.00 0.00 42 1013.4
20220705211803 98 27 4.0 9.0 0.00 0.00 0.00 41 1013.4
20220705211703 98 21 4.0 9.0 0.00 0.00 0.00 41 1013.4
20220705211604 98 9 4.0 13.0 0.00 0.00 0.00 41 1013.4
20220705211503 99 9 5.0 13.0 0.00 0.00 0.00 41 1013.4
20220705211403 99 5 5.0 13.0 0.00 0.00 0.00 41 1013.5
20220705211305 99 10 5.0 13.0 0.00 0.00 0.00 42 1013.5
20220705211203 99 13 5.0 13.0 0.00 0.00 0.00 42 1013.5
20220705211104 98 16 5.0 13.0 0.00 0.00 0.00 42 1013.5
20220705211003 98 19 5.0 13.0 0.00 0.00 0.00 42 1013.5
20220705210903 98 23 5.0 13.0 0.00 0.00 0.00 42 1013.5
20220705210803 98 26 5.0 13.0 0.00 0.00 0.00 42 1013.5
20220705210703 98 29 5.0 13.0 0.00 0.00 0.00 42 1013.5
20220705210604 98 37 5.0 12.0 0.00 0.00 0.00 43 1013.5
20220705210504 98 37 5.0 12.0 0.00 0.00 0.00 43 1013.5
20220705210403 98 35 5.0 12.0 0.00 0.00 0.00 43 1013.6
20220705210304 98 30 5.0 12.0 0.00 0.00 0.00 42 1013.6
20220705210203 98 31 5.0 12.0 0.00 0.00 0.00 42 1013.5
20220705210105 98 36 6.0 12.0 0.00 0.00 0.00 43 1013.6
20220705210003 97 39 6.0 13.0 0.00 0.00 0.00 44 1013.6
20220705205905 97 39 7.0 13.0 0.00 0.00 0.00 43 1013.6
20220705205803 97 40 7.0 13.0 0.00 0.00 0.00 43 1013.7
20220705205703 97 43 8.0 13.0 0.00 0.00 0.00 42 1013.6
20220705205603 97 47 7.0 17.0 0.00 0.00 0.00 43 1013.7
20220705205505 97 49 7.0 17.0 0.00 0.00 0.00 42 1013.7
20220705205403 97 54 7.0 17.0 0.00 0.00 0.00 44 1013.7
20220705205303 96 56 8.0 17.0 0.00 0.00 0.00 44 1013.7
20220705205203 96 56 8.0 17.0 0.00 0.00 0.00 44 1013.7
20220705205103 96 57 8.0 17.0 0.00 0.00 0.00 43 1013.7
20220705205003 96 60 7.0 17.0 0.00 0.00 0.00 43 1013.7
20220705204903 96 63 7.0 17.0 0.00 0.00 0.00 44 1013.7
20220705204803 96 64 7.0 17.0 0.00 0.00 0.00 43 1013.7
20220705204705 97 62 6.0 17.0 0.00 0.00 0.00 43 1013.7
20220705204603 97 58 6.0 16.0 0.00 0.00 0.00 43 1013.8
20220705204503 97 54 6.0 16.0 0.00 0.00 0.00 44 1013.8
20220705204403 97 52 6.0 16.0 0.00 0.00 0.00 43 1013.8
20220705204303 97 47 6.0 13.0 0.00 0.00 0.00 43 1013.8
20220705204203 97 44 5.0 13.0 0.00 0.00 0.00 42 1013.9
20220705204103 97 38 5.0 13.0 0.00 0.00 0.00 42 1013.8
20220705204003 98 28 6.0 13.0 0.00 0.00 0.00 42 1013.9
20220705203905 98 20 6.0 14.0 0.00 0.00 0.00 43 1013.9
20220705203803 98 18 6.0 14.0 0.00 0.00 0.00 43 1014.0
20220705203705 98 17 6.0 14.0 0.00 0.00 0.00 43 1014.0
20220705203603 98 16 5.0 14.0 0.00 0.00 0.00 43 1014.1
20220705203503 98 15 5.0 14.0 0.00 0.00 0.00 43 1014.1
20220705203403 97 10 5.0 14.0 0.00 0.00 0.00 42 1014.1
20220705203303 97 10 5.0 14.0 0.00 0.00 0.00 43 1014.1
20220705203204 97 5 5.0 14.0 0.00 0.00 0.00 43 1014.2
20220705203103 97 356 5.0 14.0 0.00 0.00 0.00 43 1014.2
20220705203004 97 358 5.0 14.0 0.00 0.00 0.00 43 1014.2
20220705202904 97 1 5.0 14.0 0.00 0.00 0.00 45 1014.1
20220705202804 97 353 5.0 14.0 0.00 0.00 0.00 45 1014.2
20220705202704 97 354 5.0 14.0 0.00 0.00 0.00 45 1014.1
20220705202603 97 357 6.0 14.0 0.00 0.00 0.00 44 1014.1
20220705202505 96 356 6.0 14.0 0.00 0.00 0.00 45 1014.1
20220705202404 96 359 6.0 14.0 0.00 0.00 0.00 45 1014.2
20220705202304 96 4 6.0 14.0 0.00 0.00 0.00 45 1014.2
20220705202203 97 7 6.0 14.0 0.00 0.00 0.00 45 1014.3
20220705202103 96 12 5.0 14.0 0.00 0.00 0.00 45 1014.3
20220705202003 96 16 5.0 14.0 0.00 0.00 0.00 44 1014.3
20220705201903 96 15 5.0 14.0 0.00 0.00 0.00 44 1014.3
20220705201803 96 27 5.0 12.0 0.00 0.00 0.00 45 1014.4
20220705201705 96 31 6.0 13.0 0.00 0.00 0.00 45 1014.3
20220705201603 96 32 6.0 13.0 0.00 0.00 0.00 45 1014.3
20220705201503 96 35 6.0 13.0 0.00 0.00 0.00 45 1014.4
20220705201403 96 35 6.0 13.0 0.00 0.00 0.00 45 1014.4
20220705201303 96 38 6.0 13.0 0.00 0.00 0.00 46 1014.4
20220705201204 96 43 6.0 13.0 0.00 0.00 0.00 47 1014.4
20220705201104 96 47 7.0 15.0 0.00 0.00 0.00 46 1014.4
20220705201003 96 51 8.0 16.0 0.00 0.00 0.00 46 1014.5
20220705200905 96 55 8.0 16.0 0.00 0.00 0.00 46 1014.5
20220705200804 96 57 8.0 17.0 0.00 0.00 0.00 46 1014.5
20220705200703 96 57 8.0 17.0 0.00 0.00 0.00 47 1014.5
20220705200604 95 55 8.0 17.0 0.00 0.00 0.00 46 1014.5
20220705200504 95 55 8.0 17.0 0.00 0.00 0.00 46 1014.5
20220705200403 95 56 8.0 17.0 0.00 0.00 0.00 46 1014.5
20220705200305 95 56 8.0 17.0 0.00 0.00 0.00 46 1014.6
20220705200203 95 52 8.0 17.0 0.00 0.00 0.00 45 1014.6
20220705200103 96 48 8.0 17.0 0.00 0.00 0.00 45 1014.6
20220705200003 96 42 7.0 17.0 0.00 0.00 0.00 45 1014.6
20220705195905 96 37 7.0 17.0 0.00 0.00 0.00 44 1014.6
20220705195804 96 36 6.0 12.0 0.00 0.00 0.00 46 1014.6
20220705195704 96 33 6.0 12.0 0.00 0.00 0.00 45 1014.6
20220705195603 96 35 5.0 12.0 0.00 0.00 0.00 45 1014.6
20220705195503 96 36 5.0 12.0 0.00 0.00 0.00 45 1014.6
20220705195403 96 35 5.0 12.0 0.00 0.00 0.00 45 1014.7
20220705195303 96 28 5.0 12.0 0.00 0.00 0.00 46 1014.7
20220705195203 96 32 4.0 12.0 0.00 0.00 0.00 45 1014.7
20220705195105 96 34 4.0 12.0 0.00 0.00 0.00 46 1014.7
20220705195003 96 33 4.0 9.0 0.00 0.00 0.00 46 1014.8
20220705194903 96 26 4.0 9.0 0.00 0.00 0.00 46 1014.7
20220705194803 96 9 4.0 10.0 0.00 0.00 0.00 48 1014.7
20220705194704 96 8 4.0 11.0 0.00 0.00 0.00 47 1014.8
20220705194603 96 7 5.0 14.0 0.00 0.00 0.00 47 1014.7
20220705194503 96 9 5.0 14.0 0.00 0.00 0.00 46 1014.7
20220705194403 96 13 5.0 14.0 0.00 0.00 0.00 47 1014.8
20220705194303 96 20 5.0 14.0 0.00 0.00 0.00 47 1014.8
20220705194204 96 23 5.0 14.0 0.00 0.00 0.00 47 1014.8
20220705194104 95 23 5.0 14.0 0.00 0.00 0.00 47 1014.8
20220705194003 95 28 6.0 14.0 0.00 0.00 0.00 47 1014.9
20220705193903 95 32 6.0 14.0 0.00 0.00 0.00 47 1015.0
20220705193803 95 39 6.0 14.0 0.00 0.00 0.00 48 1015.1
20220705193703 95 45 6.0 14.0 0.00 0.00 0.00 48 1015.0
20220705193603 95 50 6.0 14.0 0.00 0.00 0.00 47 1014.9
20220705193503 95 50 6.0 14.0 0.00 0.00 0.00 47 1014.9
20220705193403 95 49 6.0 14.0 0.00 0.00 0.00 47 1014.9
20220705193303 95 46 6.0 14.0 0.00 0.00 0.00 46 1015.0
20220705193203 95 44 6.0 14.0 0.00 0.00 0.00 46 1015.0
20220705193103 95 45 7.0 14.0 0.00 0.00 0.00 47 1015.0
20220705193004 95 44 7.0 14.0 0.00 0.00 0.00 47 1015.1
20220705192905 95 47 6.0 12.0 0.00 0.00 0.00 48 1015.1
20220705192803 95 46 6.0 12.0 0.00 0.00 0.00 48 1015.1
20220705192703 95 42 5.0 12.0 0.00 0.00 0.00 49 1015.0
20220705192604 95 31 6.0 12.0 0.00 0.00 0.00 48 1015.1
20220705192505 95 23 6.0 12.0 0.00 0.00 0.00 47 1015.1
20220705192403 95 19 5.0 12.0 0.00 0.00 0.00 49 1015.2
20220705192303 95 19 5.0 12.0 0.00 0.00 0.00 48 1015.2
20220705192203 95 14 5.0 12.0 0.00 0.00 0.00 48 1015.2
20220705192103 95 15 5.0 12.0 0.00 0.00 0.00 48 1015.2
20220705192004 95 14 5.0 12.0 0.00 0.00 0.00 48 1015.3
20220705191905 95 18 5.0 12.0 0.00 0.00 0.00 48 1015.2
20220705191803 95 24 6.0 12.0 0.00 0.00 0.00 47 1015.3
20220705191703 95 32 6.0 12.0 0.00 0.00 0.00 48 1015.2
20220705191603 95 42 6.0 12.0 0.00 0.00 0.00 48 1015.2
20220705191504 95 48 6.0 12.0 0.00 0.00 0.00 48 1015.2
20220705191403 95 46 6.0 12.0 0.00 0.00 0.00 48 1015.3
20220705191303 94 44 6.0 12.0 0.00 0.00 0.00 48 1015.3
20220705191203 94 45 6.0 12.0 0.00 0.00 0.00 49 1015.4
20220705191103 94 42 6.0 12.0 0.00 0.00 0.00 49 1015.3
20220705191003 94 40 7.0 14.0 0.00 0.00 0.00 49 1015.4
20220705190904 94 38 7.0 14.0 0.00 0.00 0.00 50 1015.4
20220705190804 94 32 7.0 14.0 0.00 0.00 0.00 49 1015.4
20220705190705 94 28 6.0 14.0 0.00 0.00 0.00 49 1015.4
20220705190603 94 21 5.0 14.0 0.00 0.00 0.00 47 1015.4
20220705190505 94 14 6.0 14.0 0.00 0.00 0.00 47 1015.4
20220705190403 94 9 6.0 14.0 0.00 0.00 0.00 48 1015.5
20220705190305 95 9 6.0 14.0 0.00 0.00 0.00 47 1015.5
20220705190204 95 9 6.0 14.0 0.00 0.00 0.00 48 1015.5
20220705190103 95 12 5.0 14.0 0.00 0.00 0.00 48 1015.6
20220705190003 95 8 5.0 13.0 0.00 0.00 0.00 48 1015.6
20220705185904 95 1 4.0 11.0 0.00 0.00 0.00 49 1015.5
20220705185804 95 357 4.0 10.0 0.00 0.00 0.00 49 1015.6
20220705185704 94 352 4.0 10.0 0.00 0.00 0.00 49 1015.5
20220705185603 94 353 5.0 10.0 0.00 0.00 0.00 48 1015.6
20220705185504 94 351 5.0 11.0 0.00 0.00 0.00 48 1015.6
20220705185403 94 353 5.0 11.0 0.00 0.00 0.00 50 1015.6
20220705185305 94 358 5.0 13.0 0.00 0.00 0.00 50 1015.6
20220705185204 94 358 5.0 15.0 0.00 0.00 0.00 49 1015.6
20220705185104 94 356 5.0 15.0 0.00 0.00 0.00 49 1015.6
20220705185003 94 1 5.0 15.0 0.00 0.00 0.00 49 1015.7
20220705184903 94 7 6.0 15.0 0.00 0.00 0.00 49 1015.7
20220705184803 94 15 6.0 15.0 0.00 0.00 0.00 49 1015.7
20220705184705 94 25 6.0 15.0 0.00 0.00 0.00 49 1015.7
20220705184603 94 30 7.0 15.0 0.00 0.00 0.00 50 1015.7
20220705184503 93 35 7.0 15.0 0.00 0.00 0.00 50 1015.7
20220705184403 93 41 7.0 15.0 0.00 0.00 0.00 50 1015.7
20220705184303 93 43 7.0 15.0 0.00 0.00 0.00 51 1015.7
20220705184204 93 44 6.0 15.0 0.00 0.00 0.00 51 1015.8
20220705184103 93 41 7.0 15.0 0.00 0.00 0.00 50 1015.7
20220705184003 93 38 7.0 15.0 0.00 0.00 0.00 51 1015.8
20220705183903 93 39 7.0 15.0 0.00 0.00 0.00 51 1015.8
20220705183803 93 37 8.0 15.0 0.00 0.00 0.00 51 1015.9
20220705183703 93 34 8.0 15.0 0.00 0.00 0.00 51 1015.9
20220705183604 93 36 8.0 15.0 0.00 0.00 0.00 51 1015.9
20220705183505 93 37 7.0 15.0 0.00 0.00 0.00 51 1015.9
20220705183403 93 36 8.0 15.0 0.00 0.00 0.00 50 1015.9
20220705183303 93 36 8.0 16.0 0.00 0.00 0.00 51 1016.0
20220705183203 93 37 8.0 16.0 0.00 0.00 0.00 51 1015.9
20220705183104 93 40 8.0 16.0 0.00 0.00 0.00 51 1016.0
20220705183003 93 39 8.0 16.0 0.00 0.00 0.00 50 1016.0
20220705182905 93 37 7.0 16.0 0.00 0.00 0.00 51 1016.0
20220705182804 93 38 6.0 16.0 0.00 0.00 0.00 51 1016.0
20220705182704 93 39 6.0 16.0 0.00 0.00 0.00 52 1015.9
20220705182603 93 37 6.0 16.0 0.00 0.00 0.00 51 1016.0
20220705182503 94 34 6.0 16.0 0.00 0.00 0.00 51 1016.1
20220705182403 94 37 6.0 16.0 0.00 0.00 0.00 51 1016.0
20220705182303 93 37 6.0 13.0 0.00 0.00 0.00 52 1016.1
20220705182203 93 30 6.0 13.0 0.00 0.00 0.00 51 1016.0
20220705182103 93 21 6.0 13.0 0.00 0.00 0.00 51 1016.0
20220705182003 93 19 6.0 13.0 0.00 0.00 0.00 53 1016.1
20220705181903 93 24 6.0 13.0 0.00 0.00 0.00 53 1016.1
20220705181803 93 20 7.0 13.0 0.00 0.00 0.00 52 1016.1
20220705181705 93 13 7.0 13.0 0.00 0.00 0.00 52 1016.1
20220705181603 93 17 7.0 13.0 0.00 0.00 0.00 52 1016.1
20220705181503 93 19 7.0 13.0 0.00 0.00 0.00 52 1016.1
20220705181403 93 20 7.0 13.0 0.00 0.00 0.00 52 1016.1
20220705181303 93 21 6.0 13.0 0.00 0.00 0.00 52 1016.1
20220705181203 93 28 6.0 13.0 0.00 0.00 0.00 52 1016.1
20220705181103 93 37 6.0 13.0 0.00 0.00 0.00 52 1016.2
20220705181003 93 41 6.0 13.0 0.00 0.00 0.00 53 1016.2
20220705180903 93 40 6.0 13.0 0.00 0.00 0.00 52 1016.2
20220705180803 92 43 5.0 11.0 0.00 0.00 0.00 53 1016.2
20220705180705 92 49 5.0 11.0 0.00 0.00 0.00 54 1016.2
20220705180603 92 47 5.0 12.0 0.00 0.00 0.00 54 1016.3
20220705180503 92 47 5.0 12.0 0.00 0.00 0.00 54 1016.2
20220705180403 92 44 5.0 12.0 0.00 0.00 0.00 54 1016.3
20220705180303 92 42 6.0 12.0 0.00 0.00 0.00 55 1016.2
20220705180203 92 41 6.0 12.0 0.00 0.00 0.00 54 1016.4
20220705180103 92 34 6.0 12.0 0.00 0.00 0.00 55 1016.3
20220705180003 92 32 6.0 12.0 0.00 0.00 0.00 55 1016.3
20220705175905 92 27 5.0 12.0 0.00 0.00 0.00 55 1016.3
20220705175804 92 24 6.0 12.0 0.00 0.00 0.00 54 1016.4
20220705175704 92 21 6.0 13.0 0.00 0.00 0.00 54 1016.4
20220705175603 92 24 6.0 13.0 0.00 0.00 0.00 55 1016.4
20220705175503 92 21 6.0 13.0 0.00 0.00 0.00 54 1016.4
20220705175404 92 13 5.0 13.0 0.00 0.00 0.00 54 1016.5
20220705175305 92 11 5.0 14.0 0.00 0.00 0.00 54 1016.4
20220705175203 92 11 5.0 14.0 0.00 0.00 0.00 54 1016.4
20220705175103 92 21 6.0 14.0 0.00 0.00 0.00 55 1016.4
20220705175003 92 26 6.0 14.0 0.00 0.00 0.00 54 1016.4
20220705174905 92 29 6.0 14.0 0.00 0.00 0.00 55 1016.5
20220705174803 92 35 6.0 14.0 0.00 0.00 0.00 55 1016.5
20220705174705 92 37 6.0 14.0 0.00 0.00 0.00 54 1016.5
20220705174603 92 33 6.0 14.0 0.00 0.00 0.00 55 1016.5
20220705174504 92 36 6.0 14.0 0.00 0.00 0.00 55 1016.5
20220705174403 92 39 6.0 14.0 0.00 0.00 0.00 56 1016.6
20220705174303 91 43 7.0 14.0 0.00 0.00 0.00 56 1016.6
20220705174204 91 42 7.0 14.0 0.00 0.00 0.00 57 1016.6
20220705174104 91 43 7.0 14.0 0.00 0.00 0.00 57 1016.6
20220705174003 91 44 7.0 16.0 0.00 0.00 0.00 57 1016.6
20220705173903 91 46 7.0 16.0 0.00 0.00 0.00 56 1016.6
20220705173803 91 46 8.0 16.0 0.00 0.00 0.00 57 1016.6
20220705173703 90 46 8.0 16.0 0.00 0.00 0.00 57 1016.6
20220705173603 90 48 9.0 16.0 0.00 0.00 0.00 57 1016.5
20220705173503 90 48 9.0 16.0 0.00 0.00 0.00 56 1016.6
20220705173403 90 48 8.0 16.0 0.00 0.00 0.00 57 1016.6
20220705173303 90 46 8.0 16.0 0.00 0.00 0.00 57 1016.6
20220705173203 90 47 8.0 16.0 0.00 0.00 0.00 57 1016.6
20220705173104 90 45 8.0 16.0 0.00 0.00 0.00 58 1016.7
20220705173003 90 45 7.0 14.0 0.00 0.00 0.00 58 1016.7
20220705172904 90 46 7.0 14.0 0.00 0.00 0.00 57 1016.7
20220705172803 91 49 7.0 14.0 0.00 0.00 0.00 57 1016.7
20220705172703 91 53 7.0 14.0 0.00 0.00 0.00 57 1016.7
20220705172603 91 53 6.0 14.0 0.00 0.00 0.00 58 1016.7
20220705172503 90 52 6.0 13.0 0.00 0.00 0.00 58 1016.7
20220705172403 90 52 6.0 13.0 0.00 0.00 0.00 58 1016.7
20220705172305 90 52 6.0 13.0 0.00 0.00 0.00 59 1016.7
20220705172203 90 54 6.0 13.0 0.00 0.00 0.00 58 1016.7
20220705172103 90 54 7.0 13.0 0.00 0.00 0.00 57 1016.7
20220705172003 90 55 7.0 16.0 0.00 0.00 0.00 58 1016.7
20220705171903 90 55 8.0 16.0 0.00 0.00 0.00 58 1016.8
20220705171803 89 54 8.0 16.0 0.00 0.00 0.00 58 1016.7
20220705171703 89 52 8.0 16.0 0.00 0.00 0.00 59 1016.8
20220705171603 89 50 8.0 16.0 0.00 0.00 0.00 59 1016.8
20220705171503 89 51 8.0 16.0 0.00 0.00 0.00 59 1016.9
20220705171403 89 52 8.0 16.0 0.00 0.00 0.00 60 1016.9
20220705171303 89 53 8.0 16.0 0.00 0.00 0.00 60 1016.9
20220705171204 89 51 8.0 16.0 0.00 0.00 0.00 60 1016.9
20220705171104 89 51 7.0 16.0 0.00 0.00 0.00 60 1016.9
20220705171004 89 49 7.0 16.0 0.00 0.00 0.00 59 1016.8
20220705170905 89 45 6.0 13.0 0.00 0.00 0.00 58 1016.9
20220705170803 90 43 6.0 13.0 0.00 0.00 0.00 58 1016.9
20220705170703 90 40 6.0 13.0 0.00 0.00 0.00 58 1016.9
20220705170603 90 41 6.0 13.0 0.00 0.00 0.00 59 1016.9
20220705170503 90 40 6.0 14.0 0.00 0.00 0.00 59 1016.9
20220705170403 90 42 7.0 14.0 0.00 0.00 0.00 60 1016.9
20220705170303 89 44 7.0 15.0 0.00 0.00 0.00 61 1016.9
20220705170204 89 45 7.0 15.0 0.00 0.00 0.00 61 1016.9
20220705170104 89 45 7.0 15.0 0.00 0.00 0.00 61 1016.9
20220705170003 88 47 7.0 15.0 0.00 0.00 0.00 62 1016.9
20220705165903 88 47 8.0 15.0 0.00 0.00 0.00 62 1016.9
20220705165804 88 48 8.0 15.0 0.00 0.00 0.00 62 1016.9
20220705165703 88 49 8.0 15.0 0.00 0.00 0.00 62 1017.0
20220705165603 88 50 8.0 15.0 0.00 0.00 0.00 62 1017.0
20220705165505 88 52 8.0 15.0 0.00 0.00 0.00 62 1016.9
20220705165403 88 53 8.0 15.0 0.00 0.00 0.00 61 1017.0
20220705165303 88 54 8.0 13.0 0.00 0.00 0.00 61 1017.0
20220705165203 88 55 8.0 14.0 0.00 0.00 0.00 62 1017.0
20220705165103 88 56 8.0 14.0 0.00 0.00 0.00 62 1016.9
20220705165003 88 55 8.0 14.0 0.00 0.00 0.00 62 1017.0
20220705164903 88 54 8.0 14.0 0.00 0.00 0.00 62 1017.0
20220705164804 88 52 8.0 14.0 0.00 0.00 0.00 62 1016.9
20220705164703 88 51 8.0 14.0 0.00 0.00 0.00 61 1017.0
20220705164603 88 50 8.0 14.0 0.00 0.00 0.00 61 1017.0
20220705164505 88 50 8.0 14.0 0.00 0.00 0.00 60 1017.0
20220705164403 89 49 7.0 14.0 0.00 0.00 0.00 60 1017.1
20220705164304 88 47 7.0 14.0 0.00 0.00 0.00 61 1017.0
20220705164204 88 45 7.0 15.0 0.00 0.00 0.00 62 1017.1
20220705164103 88 45 7.0 15.0 0.00 0.00 0.00 62 1017.1
20220705164003 88 47 7.0 15.0 0.00 0.00 0.00 62 1017.2
20220705163905 88 53 7.0 15.0 0.00 0.00 0.00 62 1017.1
20220705163804 87 57 8.0 15.0 0.00 0.00 0.00 62 1017.1
20220705163704 87 58 8.0 15.0 0.00 0.00 0.00 63 1017.1
20220705163603 87 60 8.0 15.0 0.00 0.00 0.00 63 1017.1
20220705163503 87 61 8.0 15.0 0.00 0.00 0.00 63 1017.1
20220705163403 87 62 8.0 15.0 0.00 0.00 0.00 64 1017.1
20220705163305 87 64 8.0 15.0 0.00 0.00 0.00 64 1017.2
20220705163204 87 66 8.0 15.0 0.00 0.00 0.00 64 1017.1
20220705163103 87 66 8.0 15.0 0.00 0.00 0.00 64 1017.1
20220705163003 87 64 9.0 15.0 0.00 0.00 0.00 64 1017.2
20220705162904 87 59 8.0 15.0 0.00 0.00 0.00 63 1017.2
20220705162803 87 56 8.0 15.0 0.00 0.00 0.00 63 1017.2
20220705162705 87 55 8.0 15.0 0.00 0.00 0.00 63 1017.2
20220705162603 87 55 8.0 15.0 0.00 0.00 0.00 63 1017.2
20220705162505 88 53 9.0 17.0 0.00 0.00 0.00 62 1017.2
20220705162403 88 52 9.0 17.0 0.00 0.00 0.00 62 1017.2
20220705162303 88 49 9.0 17.0 0.00 0.00 0.00 62 1017.2
20220705162203 88 48 9.0 17.0 0.00 0.00 0.00 63 1017.2
20220705162103 88 47 9.0 17.0 0.00 0.00 0.00 62 1017.2
20220705162003 87 49 9.0 17.0 0.00 0.00 0.00 63 1017.2
20220705161903 87 49 9.0 17.0 0.00 0.00 0.00 62 1017.3
20220705161803 87 47 9.0 17.0 0.00 0.00 0.00 63 1017.3
20220705161703 87 45 9.0 17.0 0.00 0.00 0.00 64 1017.3
20220705161603 87 43 8.0 17.0 0.00 0.00 0.00 64 1017.3
20220705161504 87 43 8.0 15.0 0.00 0.00 0.00 64 1017.3
20220705161403 87 42 7.0 15.0 0.00 0.00 0.00 64 1017.3
20220705161303 87 43 7.0 15.0 0.00 0.00 0.00 65 1017.3
20220705161203 87 43 7.0 15.0 0.00 0.00 0.00 64 1017.3
20220705161103 88 45 7.0 15.0 0.00 0.00 0.00 64 1017.3
20220705161003 88 42 7.0 15.0 0.00 0.00 0.00 64 1017.3
20220705160903 88 42 6.0 15.0 0.00 0.00 0.00 64 1017.3
20220705160803 88 43 6.0 13.0 0.00 0.00 0.00 65 1017.3
20220705160703 87 43 7.0 13.0 0.00 0.00 0.00 66 1017.2
20220705160603 87 46 7.0 13.0 0.00 0.00 0.00 65 1017.2
20220705160503 87 47 7.0 13.0 0.00 0.00 0.00 66 1017.2
20220705160403 87 47 7.0 13.0 0.00 0.00 0.00 67 1017.3
20220705160305 87 48 8.0 13.0 0.00 0.00 0.00 67 1017.2
20220705160203 87 48 8.0 13.0 0.00 0.00 0.00 66 1017.3
20220705160103 87 49 8.0 13.0 0.00 0.00 0.00 66 1017.3
20220705160003 87 51 8.0 13.0 0.00 0.00 0.00 66 1017.3
20220705155905 87 51 8.0 15.0 0.00 0.00 0.00 66 1017.3
20220705155803 87 54 8.0 15.0 0.00 0.00 0.00 66 1017.2
20220705155705 87 58 8.0 15.0 0.00 0.00 0.00 66 1017.2
20220705155603 87 58 8.0 15.0 0.00 0.00 0.00 66 1017.2
20220705155505 87 56 8.0 15.0 0.00 0.00 0.00 66 1017.2
20220705155403 87 54 8.0 15.0 0.00 0.00 0.00 66 1017.2
20220705155303 87 53 8.0 16.0 0.00 0.00 0.00 66 1017.2
20220705155203 87 52 8.0 16.0 0.00 0.00 0.00 67 1017.3
20220705155103 87 49 9.0 16.0 0.00 0.00 0.00 66 1017.2
20220705155003 87 47 9.0 16.0 0.00 0.00 0.00 66 1017.3